[{"header": {"dx": 0.06612293990616946, "dy": 0.0552356325346848, "nx": 98, "ny": 59, "la1": 35.046912555036876, "la2": 31.78801023549047, "lo1": -121.43107172385933, "lo2": -114.95102361305473, "refTime": "2026041119", "parameterCategory": 1, "parameterNumber": 2}, "data": [9.02, 9.02, 7.34, 6.95, 6.4, 4.74, 4.38, 3.22, 3.22, 3.09, 2.9, 4.64, 6.7, 6.71, 6.69, 6.24, 5.54, 4.05, 4.8, 5.0, 6.2, 6.45, 6.59, 7.59, 8.22, 9.02, 9.53, 9.67, 9.86, 10.8, 10.87, 11.2, 10.04, 10.38, 5.46, 0.0, 0.0, 0.0, 3.4, 4.83, 8.03, 10.0, 11.62, 9.17, 10.12, 10.75, 12.33, 12.86, 10.73, 9.41, 7.63, 8.45, 9.36, 10.12, 10.54, 10.58, 10.98, 11.03, 11.39, 11.8, 11.8, 12.03, 11.99, 11.81, 11.58, 11.31, 11.35, 11.31, 12.07, 12.65, 13.15, 13.49, 13.23, 13.71, 13.99, 13.56, 11.97, 10.23, 9.8, 8.53, 10.4, 8.93, 6.95, 6.32, 5.21, 5.63, 5.31, 5.53, 5.29, 4.17, 3.34, 3.34, 4.1, 4.81, 5.11, 6.15, 6.7, 6.84, 9.8, 9.02, 8.31, 6.73, 6.4, 4.89, 4.52, 3.22, 3.32, 3.32, 2.81, 4.58, 5.64, 7.06, 6.45, 5.75, 4.05, 3.68, 3.53, 4.6, 4.75, 5.77, 5.77, 7.02, 7.06, 7.9, 8.75, 8.94, 8.49, 8.82, 9.8, 8.83, 9.31, 8.73, 9.39, 1.25, 0.0, 0.0, 1.67, 3.65, 5.4, 12.96, 9.17, 7.58, 10.15, 11.45, 11.57, 10.17, 8.67, 7.89, 8.18, 9.36, 9.8, 10.18, 10.52, 10.98, 11.39, 11.39, 11.66, 12.03, 12.03, 11.99, 11.6, 11.2, 10.99, 10.94, 11.35, 11.69, 11.57, 12.52, 13.59, 14.88, 14.85, 14.39, 13.97, 13.19, 11.69, 10.23, 9.8, 8.53, 10.4, 8.93, 6.95, 6.32, 5.21, 5.63, 5.31, 5.53, 5.29, 4.17, 3.34, 3.34, 4.1, 4.81, 5.11, 6.15, 6.7, 6.84, 10.52, 9.02, 8.31, 7.69, 6.4, 5.04, 4.66, 3.58, 3.42, 3.32, 2.62, 2.95, 6.7, 6.97, 6.44, 5.32, 4.4, 4.08, 3.92, 4.75, 4.36, 5.0, 6.2, 7.54, 7.11, 6.59, 7.06, 7.27, 7.59, 6.76, 6.3, 6.6, 7.4, 9.8, 10.68, 7.59, 0.0, 0.0, 0.0, 1.76, 10.41, 8.66, 7.2, 8.56, 10.56, 11.57, 10.91, 9.17, 8.14, 7.9, 9.06, 9.8, 10.22, 10.65, 9.9, 11.03, 11.03, 11.66, 12.03, 12.03, 11.99, 11.99, 11.41, 10.62, 10.02, 11.03, 11.87, 11.42, 10.65, 12.5, 13.97, 14.96, 15.83, 15.61, 13.56, 13.39, 12.27, 10.65, 8.31, 8.22, 7.59, 5.46, -0.0, -0.0, 3.49, 5.7, 5.46, 5.21, 4.3, 4.21, 3.57, 3.81, 4.51, 5.28, 6.15, 6.7, 6.84, 6.57, 10.52, 9.8, 8.58, 7.69, 6.4, 5.04, 4.81, 3.69, 3.42, 3.22, 2.62, 3.16, 6.7, 7.36, 7.27, 5.54, 4.08, 2.93, 3.68, 3.68, 3.39, 3.39, 5.2, 5.64, 6.92, 7.28, 5.7, 5.21, 5.1, 3.92, 3.47, 4.43, 5.55, 7.69, 9.48, 11.45, 8.85, 0.0, 2.28, 11.16, 10.05, 6.42, 6.9, 8.2, 9.36, 9.73, 7.19, 6.94, 7.51, 8.3, 9.17, 10.3, 10.3, 10.3, 10.73, 10.66, 11.42, 11.64, 12.03, 12.2, 11.99, 11.41, 10.56, 10.02, 9.5, 10.47, 11.7, 12.15, 11.88, 11.54, 13.91, 14.96, 15.42, 16.19, 14.79, 13.43, 12.39, 9.48, 8.68, 7.19, 4.4, 2.39, -0.0, -0.0, 3.39, 4.8, 4.8, 4.13, 4.06, 4.81, 5.11, 4.08, 3.81, 4.33, 6.08, 6.84, 6.98, 6.24, 10.52, 9.8, 8.58, 7.93, 6.4, 5.48, 5.19, 3.69, 3.69, 3.22, 2.81, 3.16, 5.64, 7.27, 6.24, 5.2, 3.68, 2.93, 2.62, 3.82, 3.44, 3.07, 3.39, 4.75, 4.15, 4.75, 4.24, 4.58, 3.68, 3.25, 3.08, 3.21, 4.72, 6.16, 8.22, 8.73, 9.97, 12.71, 15.43, 11.73, 6.08, 5.13, 5.46, 6.57, 6.53, 6.7, 6.7, 7.51, 8.21, 8.72, 9.59, 9.59, 9.59, 9.96, 10.37, 11.03, 11.42, 11.64, 12.39, 11.81, 11.77, 11.2, 9.69, 7.95, 8.18, 10.3, 10.97, 11.83, 13.47, 14.41, 12.65, 14.29, 14.59, 16.64, 16.8, 13.81, 11.09, 9.17, 4.66, -0.0, -0.0, -0.0, -0.0, 1.69, 2.71, 2.94, 3.53, 3.42, 4.51, 4.96, 4.97, 3.68, 3.55, 4.3, 5.86, 6.84, 7.26, 5.78, 10.52, 9.8, 9.42, 8.58, 6.95, 5.48, 5.19, 4.0, 3.69, 2.35, 2.71, 3.16, 5.43, 6.24, 5.54, 3.92, 2.52, 2.93, 2.62, 2.72, 2.72, 2.37, 1.83, 1.83, 1.77, 3.44, 3.44, 5.11, 4.93, 4.75, 3.45, 3.45, 4.05, 7.73, 9.48, 8.54, 9.17, 11.88, 13.12, 6.26, 3.62, 4.11, 4.21, 5.93, 6.56, 7.38, 7.78, 7.93, 7.93, 8.85, 8.97, 9.3, 9.26, 10.37, 10.73, 11.42, 11.04, 11.81, 11.99, 12.33, 11.2, 9.53, 7.95, 6.78, 7.32, 8.93, 10.49, 11.83, 13.8, 15.36, 16.22, 13.76, 14.95, 15.19, 15.63, 14.13, 10.75, 6.2, -0.0, -0.0, -0.0, -0.0, -0.0, 1.33, 1.11, 2.08, 2.82, 5.5, 5.85, 5.14, 3.68, 3.68, 3.82, 4.3, 5.76, 7.26, 6.48, 5.99, 11.09, 9.8, 9.8, 8.58, 7.16, 5.64, 5.19, 4.0, 4.0, 2.2, 1.7, 2.31, 4.18, 4.6, 5.2, 2.42, 2.62, 2.72, 2.72, 2.45, 2.81, 1.77, 1.63, 1.68, 2.09, 2.35, 2.5, 3.93, 5.28, 5.92, 4.8, 2.28, 2.7, 4.6, 6.76, 9.13, 10.12, 10.52, 8.59, 4.98, 1.77, 2.81, 4.24, 5.45, 6.73, 7.38, 8.45, 8.3, 7.93, 8.85, 8.85, 8.53, 10.03, 10.37, 10.79, 11.04, 11.41, 11.36, 11.77, 11.68, 10.35, 7.19, 5.81, 5.31, 6.6, 8.93, 11.06, 12.01, 12.48, 15.5, 16.68, 14.81, 13.83, 15.99, 13.23, 9.42, 16.09, 14.75, -0.0, -9.17, -2.71, -0.0, -0.0, -0.0, 1.44, 2.19, 4.52, 7.0, 6.1, 5.55, 3.55, 3.42, 3.68, 5.14, 6.41, 6.92, 5.99, 6.21, 10.73, 11.09, 10.12, 8.85, 7.38, 5.64, 5.64, 4.0, 3.88, 2.32, 1.76, 1.54, 2.49, 3.92, 3.96, 2.42, 2.37, 1.43, 2.54, 2.81, 3.68, 1.9, -0.0, -0.0, 1.94, 2.89, -0.0, 3.07, 7.59, 6.9, 4.48, 1.98, -0.0, 2.45, 5.0, 7.51, 9.17, 8.07, 6.87, 4.58, 3.56, 3.81, 6.34, 8.65, 9.35, 8.05, 7.51, 8.3, 7.38, 8.23, 7.78, 8.53, 9.69, 10.41, 10.41, 10.81, 10.96, 11.14, 10.85, 10.92, 7.9, 4.1, 4.38, 4.87, 6.6, 8.99, 10.95, 12.15, 13.46, 14.18, 16.79, 16.02, 14.51, 14.79, 12.02, 8.43, 16.09, 14.75, 13.86, -12.96, -12.07, -3.82, -0.0, -0.0, -0.0, 3.56, 6.2, 7.58, 7.44, 5.6, 3.18, 3.06, 4.32, 6.21, 6.21, 5.78, 6.21, 6.21, 11.75, 11.44, 10.86, 9.6, 8.06, 6.17, 5.64, 5.64, 3.76, 2.24, 1.92, 0.93, -0.0, 3.14, 4.39, 3.04, 1.43, -0.0, 1.48, 1.61, 2.2, 2.63, -0.0, -0.0, 1.77, 2.28, -0.0, 3.25, 9.39, 8.31, 2.72, -0.0, -0.0, 2.72, 5.99, 8.93, 8.58, 6.44, 5.7, 4.8, 4.93, 5.63, 7.1, 7.19, 7.02, 5.98, 7.11, 6.73, 7.49, 8.05, 9.21, 8.12, 8.93, 9.34, 9.76, 9.81, 10.2, 10.17, 10.38, 9.86, 4.48, 3.46, 4.1, 4.87, 7.59, 9.89, 11.47, 12.98, 14.2, 15.07, 15.61, 16.76, 15.9, 12.89, 10.12, 13.19, 14.75, 13.86, 13.86, 16.54, -0.0, -8.85, -0.0, 2.28, 3.19, 5.99, 7.51, 7.78, 6.45, 5.86, 3.82, 3.47, 4.32, 5.18, 5.99, 4.99, 6.42, 5.99, 12.5, 12.13, 11.2, 9.6, 8.06, 6.17, 5.64, 5.64, 4.11, 3.6, 2.28, 1.2, 1.33, 2.72, 3.81, 1.66, -0.0, -0.0, -0.0, -0.0, -0.0, -0.0, 2.72, 2.81, 2.72, 2.19, -0.0, 2.6, 6.6, 6.4, 3.47, -0.0, -0.0, 2.63, 7.24, 7.59, 7.27, 4.2, 5.2, 6.43, 7.19, 7.96, 7.65, 6.44, 6.44, 5.64, 6.7, 7.43, 8.05, 8.18, 8.18, 8.45, 8.3, 8.42, 7.78, 7.48, 8.22, 8.82, 8.82, 4.54, 2.72, 3.17, 4.47, 5.73, 7.59, 9.89, 11.79, 11.8, 13.25, 14.84, 15.34, 15.3, 14.71, 11.8, 10.12, 13.86, 12.96, 11.2, 12.96, 8.85, 8.47, 8.11, 6.43, 6.08, 6.21, 7.14, 7.72, 8.22, 7.56, 5.2, 4.08, 3.53, 4.72, 5.18, 5.6, 5.6, 6.2, 5.2, 13.07, 12.79, 12.0, 9.44, 6.6, 6.17, 6.17, 5.48, 5.15, 3.6, 3.96, 2.81, 1.48, 1.53, 2.02, 2.02, -0.0, -0.0, -0.0, -0.0, 2.87, 2.87, 5.37, 5.48, 3.58, 2.93, -0.0, -0.0, 3.14, 7.93, 6.0, 2.54, 4.32, 5.98, 8.22, 8.22, 6.98, 5.0, 6.16, 9.13, 9.42, 8.83, 7.95, 7.26, 4.8, 5.21, 5.43, 6.2, 7.14, 7.26, 6.79, 7.36, 7.23, 6.4, 5.86, 6.52, 6.52, 6.84, 6.16, 1.91, 2.41, 4.07, 4.91, 6.6, 8.06, 9.92, 10.71, 10.83, 10.51, 11.09, 12.56, 12.5, 12.65, 12.79, 14.3, 10.12, 5.8, 9.48, 8.18, 6.8, 7.0, 8.99, 8.5, 8.14, 8.31, 9.17, 8.53, 9.08, 6.76, 4.58, 4.58, 3.92, 5.08, 5.36, 4.81, 6.2, 5.6, 5.78, 13.07, 12.79, 11.64, 9.44, 6.6, 4.66, 6.17, 5.99, 5.63, 5.27, 4.1, 4.24, 3.1, 3.47, 1.66, 1.55, 1.55, 2.02, -0.0, -0.0, 2.65, 4.95, 8.05, 7.2, 3.25, 3.14, 3.04, 1.25, 4.6, 4.96, 6.95, 5.52, 7.59, 6.64, 7.27, 7.27, 6.69, 7.56, 7.85, 9.48, 9.8, 9.8, 8.15, 7.26, 5.29, 4.2, 4.58, 4.58, 5.99, 4.93, 4.65, 5.31, 5.36, 4.32, 4.21, 4.71, 7.27, 7.93, 4.44, 0.8, 1.68, 4.19, 4.91, 5.91, 6.35, 7.34, 9.13, 9.13, 8.33, 8.86, 9.6, 11.03, 11.99, 13.41, 9.48, 6.0, 6.0, 13.19, 7.38, 6.94, 7.32, 8.74, 9.66, 9.35, 10.4, 11.7, 11.44, 9.48, 7.19, 3.44, 4.75, 4.9, 5.6, 5.6, 4.99, 6.21, 5.78, 5.99, 13.57, 12.79, 10.99, 8.57, 6.6, 4.66, 5.99, 5.81, 5.81, 5.45, 5.45, 4.38, 5.02, 5.18, 3.69, 3.69, 3.81, 1.83, 1.77, 2.13, 2.2, 4.81, 6.67, 8.1, 8.1, 7.82, 8.85, 7.51, 7.9, 6.32, 6.95, 8.73, 8.73, 8.38, 8.03, 7.68, 7.56, 7.9, 7.9, 8.82, 9.5, 9.17, 7.85, 5.32, 3.65, 1.76, 1.64, 3.32, 4.75, 3.44, 2.82, 2.81, 1.9, 0.89, 2.88, 4.47, 6.53, 10.76, 6.08, 0.8, 1.58, 4.16, 5.02, 4.27, 3.98, 4.79, 6.08, 6.61, 7.57, 10.12, 11.65, 12.64, 12.45, 0.0, 0.0, 0.0, 13.99, 9.92, 9.09, 8.5, 8.76, 9.77, 10.07, 11.17, 11.18, 11.96, 12.22, 9.44, 7.1, 6.4, 7.58, 6.08, 4.99, 5.4, 6.21, 6.67, 5.4, 5.99, 13.57, 12.79, 10.99, 8.31, 6.6, 5.99, 5.99, 5.81, 6.95, 7.34, 6.2, 6.4, 6.6, 5.34, 5.49, 6.34, 6.16, 4.18, 4.66, 4.52, 4.52, 7.36, 8.85, 10.43, 10.75, 11.09, 12.39, 12.39, 11.6, 10.8, 9.2, 8.58, 9.3, 8.03, 8.03, 7.33, 6.64, 6.58, 7.9, 8.24, 8.59, 7.15, 6.71, 5.75, 3.65, 1.69, 2.28, 3.39, 3.53, 3.68, 3.68, 1.58, -0.0, -0.0, 1.91, 3.92, 7.93, 12.01, 10.15, 0.89, -0.0, 3.76, 4.66, 3.58, 2.49, 2.43, 3.98, 5.51, 8.43, 10.64, 13.76, 18.98, 15.87, 6.2, 0.0, 4.52, 8.97, 9.42, 9.92, 10.71, 10.25, 11.17, 11.6, 12.03, 11.26, 12.29, 11.1, 8.73, 6.94, 7.69, 8.78, 6.67, 4.81, 6.7, 7.14, 6.7, 5.4, 5.36, 13.57, 12.79, 11.64, 8.31, 6.4, 6.6, 6.6, 7.82, 7.58, 7.58, 7.58, 7.58, 6.6, 6.8, 7.2, 8.21, 6.34, 7.2, 7.0, 4.95, 7.82, 9.12, 9.12, 12.16, 13.99, 15.34, 15.34, 14.75, 14.3, 13.41, 12.3, 10.0, 9.3, 8.23, 8.23, 5.9, 6.42, 6.01, 8.73, 8.18, 8.38, 8.22, 6.71, 5.52, 3.49, 1.84, 1.93, 3.65, 3.11, 3.25, 3.39, 1.69, -0.0, -0.0, 2.69, 5.21, 8.23, 9.42, 8.91, 2.89, 0.93, 4.55, 4.38, 3.1, 1.47, 3.2, 4.81, 5.02, 7.54, 10.3, 14.06, 15.26, 21.71, 14.75, 8.85, 7.4, 8.61, 10.59, 11.92, 12.09, 11.54, 12.03, 12.03, 12.18, 11.39, 12.07, 9.8, 7.82, 7.24, 8.21, 8.94, 6.9, 5.98, 7.14, 6.97, 5.18, 4.99, 4.99, 13.57, 13.07, 10.86, 9.31, 6.4, 6.4, 7.58, 7.82, 7.82, 7.58, 7.58, 7.82, 7.82, 6.8, 7.98, 8.21, 8.93, 9.17, 7.4, 8.28, 9.39, 12.52, 13.99, 15.18, 16.09, 16.09, 15.65, 15.65, 14.75, 14.3, 13.86, 11.53, 9.42, 9.2, 6.95, 4.94, 6.64, 7.56, 8.94, 8.58, 8.03, 6.7, 6.44, 3.65, 3.49, 3.32, 3.32, 3.32, 3.32, 3.49, 3.65, 3.49, 4.4, 5.21, 4.96, 6.32, 5.63, 5.7, 5.6, 5.8, 5.43, 6.45, 6.45, 5.4, 2.28, 2.37, 4.4, 6.94, 8.01, 9.17, 11.04, 14.42, 17.08, 19.68, 9.16, 8.61, 11.13, 13.04, 13.18, 13.26, 12.27, 12.39, 11.55, 10.8, 10.16, 7.9, 8.37, 7.51, 8.3, 8.42, 8.49, 6.45, 6.86, 6.86, 5.57, 4.33, 5.11, 5.11, 13.7, 13.07, 10.86, 9.02, 7.58, 7.58, 7.58, 7.82, 9.6, 9.6, 8.57, 8.57, 8.57, 8.83, 9.09, 10.3, 10.02, 8.21, 9.17, 11.7, 14.39, 15.61, 15.61, 15.65, 14.9, 13.59, 13.99, 11.06, 11.06, 11.38, 11.06, 9.39, 9.22, 8.85, 5.15, 4.94, 5.72, 6.17, 7.27, 7.27, 6.44, 5.21, 5.06, 3.17, 3.32, 3.32, 4.6, 4.6, 5.36, 5.36, 5.36, 6.32, 6.64, 6.95, 5.9, 5.9, 5.06, 5.06, 6.7, 8.93, 8.93, 8.38, 9.2, 7.59, 3.39, -0.0, 4.4, 5.06, 6.76, 9.8, 12.27, 13.33, 16.75, 15.36, 12.34, 10.86, 13.7, 15.22, 14.51, 14.03, 13.02, 12.94, 12.07, 10.85, 9.3, 8.22, 7.48, 8.42, 8.42, 8.42, 8.78, 7.14, 6.2, 5.78, 5.6, 4.75, 5.8, 5.8, 13.28, 13.07, 11.44, 9.02, 7.34, 7.58, 8.31, 9.31, 9.6, 9.6, 9.6, 9.6, 8.57, 8.83, 8.83, 9.44, 9.73, 9.35, 10.76, 13.39, 15.65, 15.65, 12.65, 14.47, 14.75, 12.16, 8.68, 8.68, 11.38, 11.7, 9.92, 9.17, 10.59, 10.43, 7.27, 5.06, 5.31, 5.9, 6.17, 6.17, 5.63, 4.37, 4.14, 4.37, 4.6, 4.6, 5.59, 6.32, 6.32, 6.32, 7.15, 7.15, 7.15, 6.32, 5.63, 4.83, 6.14, 6.95, 8.03, 8.93, 9.3, 9.3, 9.2, 8.23, 7.27, 8.94, 5.69, 3.8, 6.3, 9.3, 13.99, 14.56, 16.8, 16.09, 14.19, 13.26, 15.25, 17.39, 17.16, 13.34, 11.94, 10.12, 10.12, 9.43, 9.7, 9.06, 9.17, 8.53, 8.53, 8.42, 8.07, 7.14, 5.75, 5.06, 5.25, 5.93, 6.56, 6.56, 13.28, 12.5, 10.52, 9.02, 7.34, 8.05, 9.31, 9.31, 9.6, 9.6, 9.6, 9.6, 9.6, 8.57, 8.57, 10.05, 7.1, 9.09, 10.18, 13.2, 15.2, 11.06, 5.48, 11.06, 11.8, 14.79, 12.52, 11.7, 12.33, 8.18, 9.09, 10.47, 11.7, 13.1, 11.64, 8.73, 7.76, 7.76, 8.55, 7.9, 6.3, 6.01, 5.63, 4.6, 5.86, 5.86, 7.33, 6.98, 6.32, 7.15, 6.64, 6.32, 6.64, 6.32, 5.86, 5.86, 6.14, 6.42, 7.59, 8.24, 8.93, 8.93, 10.0, 8.18, 8.8, 8.67, 6.44, 5.44, 7.13, 9.82, 12.11, 14.62, 17.99, 18.99, 17.36, 16.02, 15.08, 15.0, 17.14, 15.7, 11.06, 10.95, 10.54, 10.3, 10.65, 10.01, 9.06, 8.16, 7.78, 7.82, 7.64, 7.1, 5.57, 4.75, 6.0, 6.79, 7.19, 7.19, 13.28, 12.5, 10.52, 9.02, 9.02, 9.02, 9.31, 9.31, 10.43, 10.43, 10.43, 10.43, 10.43, 9.44, 9.44, 9.16, 9.44, 9.16, 11.06, 12.65, 13.23, 4.95, 3.69, 7.4, 8.93, 10.33, 10.33, 8.57, 9.12, 10.3, 11.38, 12.22, 13.1, 13.46, 13.1, 12.03, 10.88, 10.05, 8.4, 7.6, 6.79, 7.15, 6.79, 6.73, 6.73, 8.03, 8.05, 8.05, 8.05, 7.15, 6.32, 6.32, 5.59, 5.59, 5.53, 5.82, 7.27, 6.64, 7.74, 9.3, 8.93, 9.2, 9.6, 8.82, 7.67, 6.98, 6.32, 6.11, 7.27, 9.67, 11.81, 15.42, 18.91, 20.36, 19.22, 17.4, 16.06, 15.61, 12.24, 12.42, 13.38, 12.33, 11.38, 11.38, 11.14, 10.15, 9.53, 8.85, 7.52, 6.79, 7.1, 7.78, 5.93, 5.11, 6.1, 7.89, 8.05, 8.05, 13.27, 12.5, 10.52, 9.02, 9.02, 9.02, 10.86, 10.86, 11.2, 11.2, 11.2, 10.43, 10.43, 10.43, 9.73, 9.73, 10.75, 8.66, 9.17, 11.87, 12.01, 7.2, 7.98, 8.43, 9.73, 11.06, 11.54, 11.88, 12.22, 12.56, 12.56, 13.46, 13.46, 13.46, 14.79, 13.59, 11.99, 10.4, 9.8, 8.0, 7.58, 7.51, 7.87, 7.87, 7.06, 8.38, 8.05, 8.05, 8.05, 7.15, 5.36, 5.36, 5.59, 5.59, 5.86, 5.82, 6.64, 7.4, 8.24, 8.55, 8.55, 9.2, 9.2, 8.82, 7.44, 6.64, 5.72, 5.95, 7.14, 9.02, 11.04, 14.71, 18.05, 19.67, 17.62, 15.87, 16.54, 14.36, 10.39, 10.27, 12.64, 13.73, 12.5, 11.44, 11.2, 9.8, 9.06, 9.1, 8.79, 6.51, 6.84, 6.79, 7.25, 6.67, 7.79, 8.66, 8.37, 8.37, 13.27, 11.75, 10.52, 9.8, 9.8, 9.8, 10.52, 10.86, 11.2, 11.2, 11.2, 11.2, 10.43, 10.43, 11.33, 10.75, 10.75, 10.12, 10.82, 10.43, 12.36, 11.38, 10.02, 11.06, 12.92, 14.13, 12.71, 12.02, 12.73, 13.1, 13.46, 14.36, 14.36, 14.79, 14.79, 14.39, 13.19, 11.85, 10.21, 8.99, 7.15, 7.06, 7.06, 6.64, 6.73, 6.06, 8.8, 8.43, 8.05, 6.32, 4.37, 4.37, 5.59, 5.59, 5.86, 6.64, 6.18, 7.27, 7.27, 7.68, 7.96, 8.34, 7.64, 7.13, 6.11, 5.9, 4.78, 5.52, 6.67, 8.05, 8.51, 12.9, 14.86, 17.26, 0.0, 13.41, 13.59, 12.64, 12.33, 12.36, 12.3, 12.52, 13.26, 11.88, 10.84, 9.24, 8.84, 9.89, 9.66, 8.01, 6.7, 7.01, 7.93, 8.29, 8.37, 8.37, 8.72, 8.72, 13.15, 13.15, 11.75, 9.8, 9.8, 10.52, 10.52, 11.64, 12.0, 12.0, 12.37, 12.37, 12.0, 11.33, 11.33, 11.68, 11.68, 11.33, 11.9, 12.27, 13.39, 12.02, 10.43, 11.87, 12.57, 14.13, 14.51, 14.13, 13.76, 13.58, 13.58, 13.97, 14.39, 14.39, 14.39, 14.39, 13.99, 11.72, 10.16, 9.38, 8.18, 7.06, 6.64, 6.32, 6.39, 6.06, 8.43, 8.05, 6.01, 5.03, 4.37, 5.31, 5.59, 5.59, 5.59, 5.86, 5.63, 6.53, 7.59, 6.52, 6.32, 6.64, 6.32, 6.18, 6.04, 5.29, 4.6, 4.99, 5.75, 5.57, 6.3, 8.46, 18.22, 15.52, 8.93, 7.44, 10.61, 13.03, 14.91, 15.19, 13.99, 13.77, 12.03, 11.26, 9.24, 8.99, 8.99, 9.77, 10.54, 10.95, 7.63, 7.63, 8.37, 8.79, 8.76, 8.46, 8.01, 8.01, 13.15, 13.15, 11.28, 10.65, 10.52, 11.28, 11.28, 12.13, 12.51, 12.51, 12.37, 12.37, 12.37, 12.0, 11.68, 11.68, 11.68, 11.33, 12.27, 12.27, 13.02, 12.57, 11.87, 11.17, 11.52, 13.39, 14.13, 14.51, 14.51, 14.36, 13.97, 13.2, 13.99, 13.99, 13.99, 13.99, 13.99, 11.75, 10.55, 8.93, 7.74, 7.74, 7.4, 6.73, 6.06, 5.72, 7.68, 7.33, 5.31, 5.59, 5.59, 5.59, 5.31, 5.31, 5.31, 4.96, 5.1, 5.76, 6.87, 6.14, 5.15, 4.94, 6.18, 6.04, 5.64, 5.29, 4.92, 5.92, 5.29, 5.29, 6.31, 16.69, 21.46, 19.59, 16.24, 13.57, 10.88, 11.28, 13.88, 14.99, 15.91, 14.18, 12.6, 9.97, 8.31, 9.11, 9.89, 9.89, 10.95, 12.01, 9.7, 8.85, 9.56, 9.23, 8.46, 8.01, 7.63, 7.63, 12.39, 12.39, 11.28, 10.65, 10.3, 10.91, 11.75, 12.13, 12.13, 12.51, 12.89, 12.37, 12.37, 12.37, 12.37, 11.68, 12.27, 12.27, 12.27, 12.65, 13.02, 13.76, 12.92, 12.22, 11.52, 12.65, 13.76, 14.13, 14.13, 14.75, 14.36, 13.97, 13.99, 13.59, 13.59, 13.59, 13.59, 13.19, 10.61, 8.58, 7.74, 7.4, 7.06, 7.06, 6.39, 6.44, 6.7, 6.9, 6.9, 6.59, 6.35, 7.68, 5.69, 5.31, 3.8, 4.96, 4.96, 4.68, 6.3, 5.46, 5.46, 4.94, 5.36, 6.04, 5.06, 4.92, 4.92, 5.76, 5.76, 7.74, 10.17, 13.99, 19.25, 20.24, 18.44, 18.2, 18.73, 16.09, 13.86, 11.62, 14.68, 14.11, 10.75, 7.76, 7.98, 8.95, 9.7, 9.7, 10.75, 11.74, 13.8, 10.82, 10.3, 9.97, 8.12, 7.73, 7.73, 7.73, 12.03, 12.03, 11.64, 10.3, 10.91, 10.91, 12.39, 12.79, 13.19, 13.19, 13.19, 13.59, 13.2, 13.58, 13.58, 12.65, 12.27, 12.27, 12.27, 12.65, 13.02, 13.76, 14.13, 13.76, 13.39, 12.65, 13.02, 13.76, 14.13, 14.75, 14.75, 14.36, 14.79, 13.99, 13.59, 13.59, 13.59, 13.59, 11.75, 8.94, 7.27, 7.74, 7.4, 7.06, 6.73, 7.07, 7.03, 7.2, 7.2, 7.6, 7.42, 5.77, 5.59, 4.0, 4.96, 4.96, 5.31, 4.37, 4.96, 5.72, 6.58, 6.58, 5.53, 4.96, 4.56, 4.07, 5.14, 6.0, 6.7, 8.12, 9.77, 13.28, 15.83, 19.01, 21.17, 19.12, 17.59, 19.1, 16.09, 11.03, 11.64, 10.01, 7.42, 7.15, 7.44, 9.24, 10.01, 10.43, 10.84, 11.15, 13.18, 12.77, 10.92, 10.12, 8.21, 8.37, 8.12, 8.12, 11.64, 11.64, 11.16, 11.16, 11.64, 12.03, 12.39, 12.79, 13.19, 13.19, 13.19, 13.59, 13.59, 13.58, 13.58, 13.2, 13.19, 13.19, 13.19, 13.03, 13.42, 13.39, 13.76, 14.13, 13.76, 13.39, 13.02, 13.39, 13.76, 13.76, 14.36, 13.97, 13.97, 14.79, 14.79, 14.39, 13.99, 13.58, 12.37, 10.52, 8.22, 6.77, 6.48, 7.06, 7.15, 7.42, 7.42, 7.35, 7.35, 7.35, 6.82, 5.69, 4.26, 4.22, 4.26, 5.24, 5.31, 4.14, 3.6, 5.1, 7.59, 6.95, 6.58, 4.34, 4.6, 4.2, 4.92, 6.83, 7.59, 9.05, 10.0, 11.37, 13.81, 15.99, 17.76, 21.2, 18.9, 16.48, 14.18, 9.27, 8.85, 7.68, 5.99, 6.73, 7.54, 9.02, 10.75, 11.14, 11.54, 10.92, 11.17, 12.08, 11.54, 10.43, 9.06, 9.8, 9.92, 9.92, 11.64, 11.64, 11.16, 11.64, 11.64, 12.39, 12.39, 12.79, 13.19, 13.19, 13.19, 13.59, 13.59, 13.58, 13.58, 13.58, 13.56, 14.18, 14.42, 14.53, 13.42, 13.8, 14.79, 14.79, 14.79, 14.79, 14.39, 13.99, 14.38, 13.97, 13.97, 13.97, 13.97, 13.97, 14.39, 14.39, 15.07, 13.58, 12.73, 10.43, 8.44, 6.44, 6.18, 7.06, 7.51, 8.21, 8.58, 7.76, 7.63, 7.2, 5.69, 4.26, 4.46, 4.46, 4.94, 5.24, 5.31, 4.14, 4.26, 5.1, 5.89, 6.64, 6.04, 5.06, 4.4, 4.8, 6.31, 7.4, 8.55, 9.81, 10.85, 11.61, 12.46, 13.47, 15.56, 17.78, 21.08, 14.61, 11.9, 9.67, 7.59, 5.0, 5.1, 7.1, 8.66, 9.8, 10.52, 11.95, 11.6, 10.58, 10.22, 10.92, 12.16, 10.84, 11.06, 12.11, 12.11, 12.11, 12.33, 12.33, 11.64, 11.64, 11.64, 12.39, 12.39, 12.79, 13.48, 13.19, 13.19, 13.59, 13.59, 13.99, 13.58, 14.38, 14.61, 14.18, 14.99, 14.53, 13.42, 13.42, 13.8, 15.69, 15.69, 15.69, 15.27, 14.84, 14.38, 14.38, 14.79, 14.79, 14.79, 14.79, 15.07, 15.07, 15.07, 14.79, 13.58, 11.06, 8.31, 6.71, 5.63, 6.3, 6.95, 7.15, 8.99, 9.63, 7.21, 6.18, 4.26, 3.91, 4.14, 4.94, 4.67, 5.0, 5.31, 5.31, 4.42, 5.24, 6.01, 6.32, 5.21, 4.78, 5.06, 5.7, 7.13, 8.23, 8.4, 9.55, 11.03, 11.68, 11.79, 12.24, 14.18, 16.7, 16.99, 17.85, 14.26, 10.79, 7.74, 5.04, 5.75, 6.63, 9.48, 10.63, 11.28, 11.76, 12.03, 10.98, 9.96, 10.66, 11.16, 10.52, 11.68, 12.46, 12.46, 12.46, 12.33, 12.33, 12.33, 12.33, 12.56, 12.98, 12.98, 13.57, 13.99, 13.48, 13.99, 13.81, 14.23, 14.65, 14.38, 14.38, 15.18, 15.08, 15.08, 14.99, 14.53, 13.59, 13.99, 14.39, 15.78, 16.22, 15.87, 14.84, 15.04, 15.49, 15.49, 15.04, 15.04, 15.04, 15.18, 15.18, 15.61, 15.61, 13.58, 11.06, 8.85, 7.51, 5.45, 4.94, 4.56, 7.64, 10.09, 8.53, 6.2, 5.06, 4.94, 4.94, 4.94, 4.94, 5.0, 5.3, 5.69, 5.69, 6.01, 5.37, 5.37, 5.82, 5.36, 5.36, 5.21, 5.46, 6.31, 7.9, 7.96, 8.79, 9.8, 9.81, 12.62, 13.91, 15.17, 18.33, 18.29, 14.99, 17.34, 14.13, 10.43, 6.44, 5.72, 7.55, 8.55, 11.64, 12.33, 12.58, 12.6, 12.2, 11.53, 11.97, 11.64, 11.66, 11.76, 12.16, 12.36, 12.36, 12.33, 12.33, 12.33, 12.33, 12.56, 12.98, 13.15, 13.57, 13.99, 13.99, 13.99, 13.99, 14.23, 14.65, 14.65, 14.65, 15.18, 15.11, 15.11, 15.05, 14.11, 14.9, 13.59, 13.99, 15.61, 15.61, 15.78, 15.43, 15.05, 15.2, 15.65, 15.65, 15.05, 15.05, 14.61, 14.75, 15.18, 15.18, 13.58, 11.06, 9.12, 8.05, 6.71, 5.46, 5.24, 7.56, 10.3, 8.83, 7.68, 6.59, 5.3, 5.3, 5.69, 5.3, 5.69, 5.37, 5.69, 6.01, 6.32, 6.32, 5.37, 6.01, 5.82, 6.11, 5.46, 5.2, 6.11, 7.59, 7.9, 7.68, 7.64, 8.47, 12.03, 15.9, 17.06, 19.22, 19.13, 14.65, 13.2, 16.22, 13.61, 13.31, 10.63, 9.58, 9.42, 10.6, 10.84, 13.7, 13.37, 13.02, 13.02, 13.25, 13.05, 12.39, 12.03, 12.13, 11.94, 11.94, 12.33, 12.33, 12.33, 12.33, 12.56, 12.98, 13.15, 13.57, 13.99, 13.99, 13.99, 13.99, 13.99, 14.23, 14.65, 15.18, 15.18, 15.55, 15.65, 15.2, 15.2, 15.05, 15.34, 15.18, 15.18, 15.61, 15.61, 14.9, 16.31, 14.16, 15.2, 15.65, 15.05, 15.05, 14.6, 15.08, 14.75, 15.18, 13.58, 11.06, 9.09, 8.58, 6.97, 6.4, 6.95, 7.59, 9.16, 10.09, 9.42, 7.06, 5.69, 5.69, 5.69, 5.37, 5.77, 5.37, 5.37, 5.69, 6.45, 6.79, 6.87, 5.37, 6.79, 6.45, 6.32, 6.32, 5.31, 6.95, 8.24, 8.73, 7.51, 7.87, 11.99, 16.0, 20.02, 21.97, 17.02, 10.94, 11.97, 14.18, 15.92, 14.95, 15.39, 13.15, 12.53, 11.93, 11.46, 10.73, 13.72, 13.15, 13.19, 13.01, 12.52, 12.03, 11.28, 11.34, 11.26, 11.26, 12.89, 12.89, 12.33, 12.56, 12.56, 13.15, 13.15, 13.57, 13.99, 13.99, 13.99, 13.99, 13.99, 13.99, 15.18, 15.18, 15.18, 15.57, 15.65, 15.2, 15.65, 15.65, 15.53, 15.05, 15.34, 15.18, 15.18, 14.75, 13.57, 15.27, 13.57, 14.42, 15.43, 15.49, 15.05, 15.08, 15.08, 14.75, 14.38, 12.02, 9.09, 7.82, 7.51, 6.69, 7.27, 7.9, 8.82, 9.84, 8.82, 6.45, 6.45, 6.11, 6.11, 5.77, 6.11, 6.11, 6.11, 6.11, 6.45, 6.79, 6.79, 5.84, 6.98, 6.18, 6.52, 6.01, 6.63, 7.6, 9.2, 9.32, 8.43, 9.2, 11.0, 14.97, 20.76, 24.83, 14.03, 10.8, 12.52, 14.84, 15.49, 14.93, 15.98, 16.17, 14.14, 13.96, 12.96, 11.62, 13.67, 12.66, 12.42, 11.8, 11.81, 11.28, 11.18, 11.34, 10.86, 10.86, 12.46, 12.46, 12.89, 12.56, 12.56, 13.15, 13.15, 13.57, 13.57, 13.99, 13.99, 13.99, 13.99, 13.99, 14.75, 15.18, 15.55, 15.12, 15.2, 15.65, 15.65, 15.65, 15.57, 14.84, 14.75, 15.04, 15.43, 14.9, 14.9, 13.7, 13.19, 13.19, 13.99, 14.99, 15.05, 15.05, 15.08, 15.05, 14.38, 12.02, 9.09, 8.83, 8.73, 6.98, 7.81, 9.09, 8.93, 9.62, 9.27, 7.13, 6.79, 6.79, 6.45, 6.11, 6.11, 6.11, 6.11, 6.11, 6.44, 6.45, 6.32, 5.69, 6.01, 6.32, 5.69, 6.52, 6.52, 7.07, 8.43, 9.86, 9.2, 10.0, 11.28, 13.38, 18.85, 22.41, 17.82, 13.15, 13.99, 15.07, 16.84, 15.93, 16.35, 16.48, 16.82, 13.15, 12.45, 11.4, 12.3, 11.76, 10.6, 10.81, 10.87, 11.12, 11.75, 11.79, 11.54, 11.54, 12.58, 12.58, 12.89, 13.01, 12.56, 12.72, 13.15, 13.57, 13.57, 13.99, 14.13, 13.99, 14.4, 14.4, 14.84, 15.27, 15.12, 15.2, 15.2, 15.65, 15.65, 15.65, 15.58, 15.34, 14.9, 14.9, 15.27, 15.05, 15.2, 14.9, 14.47, 14.03, 14.03, 14.11, 14.55, 15.2, 15.2, 15.2, 14.42, 12.22, 10.02, 8.83, 8.05, 8.82, 8.37, 9.32, 9.67, 10.04, 10.04, 7.9, 7.56, 6.64, 6.45, 6.45, 6.11, 6.11, 6.11, 6.11, 6.11, 6.45, 6.32, 6.32, 5.69, 6.01, 7.15, 7.15, 7.07, 7.76, 8.4, 8.99, 9.03, 10.8, 11.87, 13.18, 15.71, 16.67, 18.19, 17.81, 15.46, 16.04, 15.59, 15.83, 15.41, 14.53, 13.02, 10.37, 11.33, 12.62, 10.81, 10.43, 10.28, 10.87, 11.6, 11.04, 11.88, 11.88, 11.75, 11.75, 12.58, 12.58, 13.01, 13.01, 13.01, 13.09, 13.15, 13.15, 13.57, 13.7, 14.13, 14.47, 14.47, 14.4, 14.4, 14.84, 15.12, 15.2, 15.2, 15.65, 15.65, 15.58, 15.57, 15.34, 15.34, 14.95, 14.95, 15.12, 14.64, 14.75, 14.75, 14.75, 14.03, 13.59, 14.11, 14.3, 14.75, 15.2, 14.99, 11.87, 8.43, 7.54, 9.31, 9.82, 8.93, 9.45, 9.6, 9.97, 10.35, 8.73, 7.56, 7.56, 7.64, 7.28, 6.11, 6.11, 6.11, 6.11, 6.11, 6.45, 6.32, 5.69, 7.28, 6.32, 7.07, 8.05, 7.37, 8.63, 8.79, 8.8, 9.7, 9.2, 13.28, 13.49, 14.15, 14.51, 15.56, 16.61, 19.19, 19.75, 17.16, 13.89, 11.72, 10.79, 10.47, 10.73, 10.79, 10.28, 10.66, 10.87, 11.26, 11.75, 11.5, 11.79, 11.87, 11.87, 12.15, 12.15, 12.58, 12.58, 13.01, 13.01, 13.01, 13.09, 13.53, 13.15, 13.7, 13.7, 13.7, 14.47, 14.13, 14.13, 14.47, 14.9, 15.2, 15.2, 15.2, 15.65, 15.65, 15.58, 15.34, 15.34, 14.9, 14.95, 14.95, 15.14, 14.68, 14.66, 14.75, 14.75, 14.3, 13.86, 13.67, 13.67, 14.3, 14.75, 14.55, 13.03, 8.43, 7.54, 8.05, 9.67, 7.76, 8.15, 9.2, 9.58, 9.97, 9.08, 7.59, 7.9, 8.0, 7.64, 6.91, 6.11, 6.11, 6.55, 6.91, 6.55, 6.87, 6.87, 6.9, 6.32, 7.37, 8.72, 7.81, 8.22, 8.63, 8.15, 8.34, 8.82, 12.11, 14.61, 14.58, 13.57, 13.47, 15.36, 19.72, 20.08, 16.74, 12.65, 9.53, 9.42, 9.62, 10.28, 10.9, 10.87, 11.2, 11.34, 11.62, 11.87, 12.09, 12.46, 12.39, 11.96, 11.97, 11.5, 12.86, 12.86, 12.58, 13.01, 13.01, 13.09, 13.53, 13.59, 13.7, 13.7, 13.7, 13.7, 13.7, 14.03, 14.47, 15.12, 15.2, 15.2, 15.2, 15.65, 15.58, 15.58, 15.34, 15.57, 15.58, 15.14, 15.14, 15.14, 14.68, 14.68, 14.23, 14.22, 14.19, 13.75, 13.75, 13.72, 13.75, 14.19, 14.6, 13.19, 9.44, 7.54, 6.65, 7.59, 6.91, 8.93, 10.0, 9.08, 8.53, 7.54, 8.22, 8.59, 8.24, 7.64, 6.91, 6.55, 6.91, 7.2, 6.82, 6.99, 7.44, 6.87, 6.79, 6.4, 7.4, 8.72, 8.3, 7.81, 7.76, 7.64, 7.13, 8.93, 11.33, 14.56, 16.16, 13.64, 13.94, 15.68, 19.23, 18.05, 14.65, 12.57, 10.97, 9.59, 10.28, 11.12, 11.83, 12.15, 12.04, 11.87, 11.87, 12.09, 12.27, 12.63, 12.58, 11.87, 12.18, 11.97, 12.86, 12.86, 12.86, 13.31, 13.01, 13.09, 13.09, 13.59, 14.03, 13.7, 14.03, 14.03, 14.03, 14.07, 14.69, 14.75, 15.2, 15.2, 15.2, 15.2, 15.58, 15.58, 15.58, 15.14, 15.14, 14.69, 14.68, 14.68, 14.68, 14.68, 14.23, 14.23, 14.23, 13.77, 13.77, 13.53, 13.53, 13.77, 14.19, 13.15, 10.43, 8.18, 5.28, 5.95, 7.68, 10.09, 11.16, 9.48, 8.3, 9.17, 9.62, 10.04, 9.3, 8.37, 6.91, 6.55, 6.91, 7.6, 7.2, 6.99, 7.07, 7.44, 6.21, 7.89, 7.89, 8.3, 7.4, 7.76, 7.28, 7.64, 7.47, 8.23, 11.2, 13.19, 15.23, 14.49, 14.53, 15.39, 16.58, 13.03, 11.52, 12.46, 13.95, 13.23, 10.9, 11.83, 13.11, 13.28, 12.72, 12.53, 12.53, 12.71, 12.68, 12.58, 12.42, 12.3, 11.87, 12.18, 12.86, 12.86, 12.86, 12.86, 13.31, 13.33, 13.09, 13.59, 13.59, 14.23, 14.03, 14.25, 14.25, 14.25, 14.75, 14.75, 15.2, 15.2, 15.2, 15.14, 15.14, 15.14, 15.58, 15.58, 15.14, 14.69, 14.69, 14.68, 14.68, 14.68, 14.23, 13.79, 13.79, 13.59, 13.53, 13.53, 13.53, 13.77, 13.77, 12.74, 10.12, 8.18, 7.69, 7.26, 7.59, 10.12, 10.99, 9.16, 10.65, 11.16, 11.16, 10.41, 9.67, 8.93, 7.76, 6.99, 7.37, 7.6, 7.2, 7.4, 7.81, 7.07, 8.4, 6.8, 7.47, 7.28, 7.37, 8.05, 6.52, 7.13, 7.47, 8.34, 10.68, 11.2, 12.65, 15.8, 16.63, 16.96, 13.59, 10.41, 12.27, 14.47, 15.99, 16.75, 13.59, 12.56, 13.39, 13.57, 12.96, 12.53, 12.46, 12.68, 12.3, 12.3, 11.92, 11.92, 12.04, 12.04, 12.88, 12.88, 12.88, 12.86, 12.88, 13.33, 13.33, 13.79, 13.79, 13.79, 13.79, 14.3, 14.3, 14.3, 14.3, 14.75, 14.75, 15.2, 14.75, 15.14, 15.14, 15.14, 15.14, 15.14, 15.2, 14.75, 14.69, 14.68, 14.68, 14.68, 14.23, 13.79, 13.79, 13.79, 13.33, 13.77, 13.77, 13.77, 13.77, 12.74, 10.12, 7.93, 7.69, 7.54, 9.08, 9.77, 10.99, 10.65, 10.79, 11.26, 10.79, 10.04, 9.3, 8.18, 7.07, 6.99, 7.6, 7.6, 7.53, 7.4, 7.81, 7.6, 6.7, 7.2, 7.47, 7.28, 7.67, 7.15, 6.52, 7.13, 8.34, 8.34, 10.27, 9.77, 11.72, 13.58, 16.87, 19.63, 15.92, 11.2, 13.13, 16.14, 18.11, 19.99, 17.02, 12.63, 13.39, 13.39, 12.89, 12.46, 12.39, 12.18, 10.99, 10.79, 12.3, 12.39, 12.39, 12.39, 12.71, 12.71, 12.71, 12.88, 12.88, 13.33, 13.34, 13.41, 13.86, 13.86, 13.86, 13.86, 14.3, 14.3, 14.3, 14.75, 14.75, 14.75, 14.75, 15.14, 15.14, 15.14, 15.14, 15.2, 14.75, 14.3, 14.75, 14.68, 14.68, 14.68, 14.23, 13.79, 13.79, 13.34, 13.34, 13.34, 13.79, 13.79, 13.77, 13.32, 10.12, 9.16, 7.69, 8.85, 8.53, 9.77, 10.47, 10.79, 10.04, 9.67, 9.3, 9.3, 8.55, 7.44, 7.07, 6.99, 7.2, 7.53, 7.53, 6.99, 7.4, 7.6, 7.07, 8.0, 6.44, 7.28, 7.67, 6.98, 6.52, 7.28, 8.15, 8.4, 8.99, 9.6, 10.4, 11.6, 16.02, 18.05, 18.02, 16.3, 14.29, 16.64, 18.67, 20.13, 18.66, 12.96, 12.89, 13.11, 13.11, 12.63, 11.62, 10.19, 9.17, 11.6, 12.39, 12.07, 12.07, 12.07, 12.31, 12.31, 12.75, 12.75, 12.91, 12.9, 13.36, 13.36, 13.41, 13.86, 13.86, 13.86, 14.3, 14.3, 14.3, 14.75, 14.75, 14.75, 14.69, 14.69, 15.14, 15.14, 15.2, 15.2, 15.2, 14.75, 14.75, 14.69, 14.68, 14.68, 14.23, 14.23, 13.79, 13.79, 13.34, 13.34, 13.15, 13.79, 13.77, 13.32, 10.99, 9.16, 8.87, 9.17, 8.53, 8.53, 9.77, 10.41, 9.67, 8.93, 8.18, 7.81, 7.07, 7.07, 7.07, 7.4, 6.99, 7.12, 7.12, 6.99, 7.4, 7.6, 7.28, 7.07, 7.15, 7.28, 7.67, 6.99, 7.28, 7.76, 8.43, 7.76, 8.4, 9.2, 10.32, 10.96, 12.7, 15.35, 16.45, 16.37, 18.2, 19.59, 20.03, 20.44, 18.94, 14.61, 12.68, 13.25, 12.81, 11.99, 10.73, 9.42, 12.3, 12.35, 12.07, 11.62, 11.62, 11.62, 12.31, 12.31, 12.31, 12.75, 12.91, 12.92, 13.36, 13.36, 13.36, 13.81, 13.86, 13.86, 14.3, 14.3, 14.3, 14.75, 14.75, 14.7, 14.69, 14.69, 14.69, 14.75, 15.2, 15.2, 14.75, 14.75, 14.69, 14.69, 14.69, 14.69, 14.23, 14.23, 13.79, 13.79, 13.34, 13.34, 13.34, 13.79, 13.77, 13.32, 10.65, 9.16, 8.87, 9.48, 8.85, 8.53, 9.77, 10.41, 10.04, 9.3, 8.55, 7.44, 6.7, 6.7, 6.99, 7.4, 7.4, 7.12, 6.7, 6.57, 6.99, 7.6, 7.28, 7.44, 6.99, 8.3, 7.89, 7.4, 7.81, 7.76, 7.76, 8.15, 8.8, 9.55, 10.32, 11.27, 12.3, 13.64, 14.22, 14.51, 14.88, 20.26, 22.7, 21.04, 21.28, 15.9, 12.68, 12.81, 12.71, 12.45, 10.04, 9.96, 11.46, 11.51, 11.62, 11.06, 11.06, 11.06, 12.31, 12.31, 12.31, 12.75, 12.92, 12.92, 12.92, 13.36, 13.36, 13.81, 13.81, 13.81, 13.81, 14.26, 14.3, 14.26, 14.26, 14.26, 14.25, 14.25, 14.69, 14.75, 14.75, 15.2, 15.2, 14.75, 14.25, 14.69, 14.69, 14.69, 14.69, 14.23, 14.23, 13.79, 13.34, 13.34, 13.36, 13.36, 13.79, 13.32, 10.65, 8.87, 8.87, 9.48, 9.17, 8.53, 9.77, 10.41, 10.41, 9.67, 8.93, 7.81, 7.44, 6.7, 7.4, 7.4, 6.99, 6.99, 6.57, 6.57, 6.99, 7.2, 7.28, 8.0, 7.81, 8.33, 8.33, 7.89, 7.67, 7.37, 7.76, 8.4, 8.99, 9.96, 10.5, 11.03, 11.79, 12.15, 12.86, 12.89, 14.88, 17.8, 20.96, 21.98, 23.53, 16.96, 14.75, 12.51, 12.14, 11.21, 10.79, 11.02, 11.06, 10.62, 10.41, 10.05, 10.05, 10.05, 12.47, 12.47, 12.47, 12.47, 12.92, 12.92, 12.92, 13.36, 13.36, 13.36, 13.81, 13.81, 13.81, 14.26, 14.26, 14.26, 14.26, 14.25, 14.25, 14.25, 14.75, 14.75, 15.2, 15.2, 15.2, 14.75, 14.25, 13.8, 14.25, 14.25, 14.69, 14.75, 14.3, 13.86, 13.34, 13.34, 13.36, 13.41, 13.33, 12.33, 10.3, 8.87, 8.87, 9.48, 9.17, 8.85, 10.12, 10.41, 10.41, 10.4, 9.6, 9.2, 8.4, 8.0, 7.4, 7.4, 6.99, 6.99, 6.57, 6.57, 6.57, 7.2, 7.28, 7.28, 7.6, 7.47, 7.47, 7.89, 7.67, 7.37, 8.4, 8.4, 9.4, 9.96, 10.08, 10.32, 10.55, 11.26, 11.64, 12.62, 14.13, 15.5, 19.89, 20.85, 24.51, 19.09, 15.59, 12.5, 10.8, 11.61, 11.46, 11.06, 10.32, 9.45, 10.05, 9.8, 9.8, 9.8, 12.47, 12.47, 12.47, 12.47, 12.47, 12.92, 12.92, 13.36, 13.36, 13.36, 13.81, 13.81, 13.81, 14.26, 14.26, 14.26, 14.25, 14.25, 14.25, 14.25, 14.3, 14.75, 14.75, 14.75, 14.75, 14.75, 14.25, 13.8, 13.8, 13.8, 13.86, 14.3, 14.3, 13.79, 13.34, 13.36, 13.36, 13.41, 13.33, 12.33, 10.3, 8.59, 8.87, 9.48, 9.17, 9.77, 10.12, 10.79, 10.8, 10.4, 9.6, 9.2, 8.8, 8.4, 7.4, 7.74, 7.74, 7.74, 7.31, 6.45, 6.4, 6.8, 6.9, 7.28, 7.6, 6.8, 6.6, 6.99, 7.37, 8.22, 8.79, 8.79, 8.99, 9.55, 9.77, 9.43, 9.67, 9.66, 10.58, 12.26, 13.51, 14.5, 15.95, 19.33, 22.32, 18.55, 11.1, 8.93, 9.77, 10.88, 10.75, 10.18, 9.45, 9.2, 9.4, 9.2, 9.2, 9.2, 12.47, 12.03, 12.47, 12.47, 12.47, 12.92, 12.92, 12.92, 13.36, 13.36, 13.81, 13.81, 14.25, 14.25, 13.81, 13.8, 13.8, 13.8, 13.8, 14.25, 14.25, 14.75, 14.75, 14.75, 14.75, 14.69, 14.25, 14.25, 13.8, 13.36, 13.41, 13.41, 13.86, 13.8, 13.36, 12.91, 12.91, 12.96, 12.88, 11.92, 9.48, 8.59, 8.59, 9.48, 8.1, 10.12, 10.12, 11.2, 10.8, 10.4, 9.6, 9.2, 8.8, 8.6, 8.17, 8.17, 7.74, 7.74, 7.31, 6.45, 6.0, 6.13, 6.52, 6.9, 7.2, 6.9, 5.95, 6.6, 6.99, 7.37, 8.0, 8.0, 8.4, 8.99, 9.2, 8.38, 9.0, 8.93, 9.96, 11.25, 12.89, 13.23, 13.85, 17.53, 21.2, 13.91, 12.11, 8.23, 9.1, 9.86, 9.86, 9.7, 9.1, 9.1, 8.99, 8.8, 8.8, 8.8, 12.03, 12.07, 12.07, 12.47, 12.47, 12.47, 12.92, 12.92, 13.36, 13.36, 13.8, 13.8, 14.25, 14.25, 13.8, 13.36, 13.36, 13.8, 14.25, 14.25, 14.25, 14.3, 14.75, 14.75, 14.75, 14.69, 14.25, 14.25, 13.8, 13.86, 13.41, 13.41, 13.41, 13.36, 12.91, 12.91, 12.96, 12.96, 12.88, 11.6, 8.3, 8.3, 9.48, 9.48, 9.17, 10.12, 11.2, 11.2, 10.8, 10.4, 9.6, 8.8, 8.8, 9.03, 8.6, 7.74, 7.74, 7.31, 7.31, 6.79, 6.36, 5.75, 6.13, 6.52, 6.9, 6.4, 6.4, 5.95, 5.84, 6.55, 7.2, 7.58, 7.96, 7.64, 8.23, 8.02, 7.97, 9.0, 9.66, 10.66, 12.27, 12.89, 13.89, 16.02, 18.38, 14.86, 13.59, 9.46, 8.37, 8.07, 8.82, 8.82, 8.58, 8.93, 8.43, 8.43, 8.43, 8.43, 12.07, 12.07, 12.07, 12.07, 12.52, 12.52, 12.47, 12.91, 12.91, 13.36, 13.8, 13.8, 14.3, 13.86, 13.41, 13.41, 13.86, 13.86, 14.3, 14.3, 14.3, 14.3, 14.75, 14.75, 14.75, 14.3, 14.3, 13.86, 13.86, 13.86, 13.41, 13.41, 13.41, 13.36, 12.91, 12.91, 12.96, 12.52, 12.42, 10.79, 8.3, 8.3, 9.17, 8.1, 9.17, 10.12, 11.2, 11.2, 10.8, 10.4, 9.6, 9.2, 9.75, 9.03, 8.85, 8.06, 7.63, 7.31, 6.88, 6.79, 6.36, 5.75, 5.75, 5.72, 7.06, 6.64, 7.06, 5.24, 6.32, 6.55, 7.2, 7.15, 7.15, 5.82, 6.95, 6.95, 8.02, 9.4, 10.04, 9.66, 10.63, 12.26, 14.49, 20.51, 18.7, 15.95, 14.19, 11.28, 8.22, 7.27, 8.38, 9.08, 9.17, 9.3, 9.2, 8.82, 8.82, 8.82, 12.07, 12.07, 12.07, 12.07, 12.52, 12.52, 12.52, 12.96, 12.96, 13.41, 13.86, 13.86, 13.86, 13.86, 13.41, 13.41, 13.86, 13.86, 13.86, 14.3, 14.3, 14.3, 14.75, 14.75, 14.75, 14.3, 14.3, 13.86, 13.86, 13.41, 13.41, 13.41, 13.41, 13.41, 12.96, 12.52, 12.52, 12.52, 12.42, 10.41, 9.17, 8.3, 9.17, 8.1, 9.17, 11.12, 11.2, 11.2, 10.8, 10.4, 9.6, 9.75, 9.74, 9.29, 8.82, 8.38, 8.38, 7.63, 7.21, 6.79, 6.36, 5.75, 5.36, 6.0, 6.64, 7.01, 6.0, 4.98, 6.8, 6.99, 6.91, 6.91, 6.79, 6.64, 6.11, 6.95, 7.27, 9.08, 9.34, 9.34, 9.96, 11.6, 20.18, 21.04, 19.71, 15.45, 12.9, 9.8, 8.24, 8.69, 8.3, 9.0, 9.52, 9.52, 9.58, 9.81, 9.81, 9.81, 12.07, 12.07, 12.07, 12.07, 12.07, 12.52, 12.52, 12.96, 12.96, 13.41, 13.41, 13.41, 13.41, 13.41, 12.96, 13.41, 13.86, 13.86, 13.86, 14.3, 14.3, 14.3, 14.3, 14.3, 14.3, 14.3, 13.86, 13.86, 13.86, 13.41, 12.96, 13.41, 13.41, 13.41, 12.96, 12.52, 12.52, 12.52, 11.95, 9.77, 8.85, 8.85, 9.17, 8.1, 9.17, 10.73, 11.2, 11.2, 11.2, 11.03, 10.18, 10.18, 9.83, 9.39, 8.94, 8.33, 8.33, 7.94, 7.5, 7.21, 6.79, 6.64, 6.0, 6.0, 6.23, 6.94, 6.4, 5.81, 6.64, 6.8, 7.4, 7.37, 7.28, 7.13, 6.64, 6.64, 6.95, 8.02, 8.97, 8.93, 8.85, 10.51, 17.85, 24.74, 21.5, 13.91, 11.38, 8.24, 7.9, 8.02, 9.04, 9.4, 9.89, 9.97, 10.2, 10.32, 10.32, 10.32, 11.62, 11.62, 12.07, 12.07, 12.07, 12.07, 12.52, 12.96, 12.52, 12.96, 12.96, 12.96, 12.96, 12.96, 12.96, 13.41, 13.86, 13.86, 13.86, 13.86, 14.3, 14.3, 14.3, 14.3, 14.3, 14.3, 13.86, 13.86, 13.41, 13.41, 12.96, 13.41, 13.41, 13.41, 12.96, 12.52, 12.52, 12.52, 11.95, 9.42, 8.85, 8.85, 7.82, 8.85, 10.73, 10.73, 11.87, 11.87, 11.87, 11.46, 10.62, 10.18, 9.83, 9.39, 8.94, 8.24, 8.33, 7.89, 7.45, 7.45, 7.06, 6.64, 6.0, 6.4, 6.94, 6.51, 6.94, 6.51, 5.51, 7.21, 7.4, 7.37, 7.28, 6.79, 7.13, 7.13, 6.64, 7.4, 8.02, 8.22, 8.53, 12.26, 15.5, 23.38, 23.88, 16.15, 10.89, 9.17, 7.31, 8.38, 8.73, 9.04, 9.67, 10.2, 10.2, 10.73, 10.73, 10.73, 11.62, 11.62, 11.62, 12.07, 11.62, 12.07, 12.07, 12.52, 12.52, 12.52, 12.96, 12.96, 12.96, 12.96, 12.96, 13.41, 13.86, 13.86, 13.86, 13.86, 13.86, 14.3, 14.3, 14.3, 14.3, 13.86, 13.86, 13.41, 13.41, 13.41, 12.96, 13.41, 13.41, 12.96, 12.96, 12.52, 12.52, 12.07, 11.95, 10.35, 8.85, 8.85, 8.85, 9.77, 10.73, 11.62, 12.35, 12.35, 12.35, 11.46, 10.73, 10.28, 9.83, 9.39, 9.39, 8.67, 8.49, 8.49, 8.05, 7.6, 7.45, 7.01, 6.4, 6.94, 6.94, 6.51, 6.51, 6.0, 5.81, 7.21, 7.2, 6.18, 6.01, 6.45, 6.79, 6.79, 6.32, 7.47, 7.4, 7.59, 9.34, 11.66, 14.22, 18.61, 25.92, 19.31, 11.29, 10.63, 7.64, 8.03, 8.38, 9.3, 9.9, 10.43, 10.4, 10.73, 10.73, 10.73, 11.62, 11.62, 11.62, 11.62, 11.62, 12.07, 12.07, 12.07, 12.07, 12.52, 12.52, 12.96, 12.96, 12.96, 12.96, 13.41, 13.41, 13.86, 13.86, 13.86, 13.86, 14.3, 14.3, 14.3, 13.86, 13.86, 13.86, 13.41, 13.41, 12.96, 12.96, 13.41, 13.41, 12.96, 12.52, 12.52, 12.07, 12.07, 11.95, 10.35, 9.77, 9.77, 9.77, 10.35, 11.21, 11.91, 12.35, 12.52, 12.52, 11.62, 10.73, 10.28, 9.83, 9.83, 9.11, 8.67, 8.49, 8.05, 8.05, 7.6, 7.15, 6.94, 6.94, 7.37, 7.37, 6.94, 5.21, 5.6, 5.81, 6.9, 6.28, 5.69, 6.18, 6.01, 6.01, 6.32, 6.79, 6.79, 7.06, 8.38, 9.81, 11.6, 13.52, 16.97, 23.21, 18.92, 12.96, 11.3, 9.69, 7.97, 7.97, 8.94, 9.56, 10.81, 10.4, 10.73, 10.73, 10.73, 11.18, 11.18, 11.18, 11.62, 11.62, 11.62, 11.62, 12.07, 12.07, 12.52, 12.52, 12.96, 12.96, 12.96, 12.96, 13.41, 13.86, 13.41, 13.86, 13.86, 13.86, 14.3, 14.3, 14.3, 13.86, 13.86, 13.41, 13.41, 13.41, 12.96, 12.96, 13.41, 13.41, 12.96, 12.52, 12.52, 12.07, 12.07, 11.91, 11.21, 10.35, 10.35, 10.35, 11.21, 11.45, 11.91, 12.07, 12.07, 12.07, 11.18, 10.73, 10.28, 10.28, 9.83, 9.21, 9.11, 8.94, 8.05, 8.05, 7.6, 7.6, 7.37, 7.37, 7.37, 7.37, 6.79, 6.36, 5.58, 6.4, 6.13, 5.95, 6.63, 5.69, 6.18, 6.01, 6.79, 6.79, 7.64, 8.34, 8.82, 9.42, 10.96, 12.56, 15.59, 21.76, 18.38, 13.29, 11.63, 10.12, 9.26, 8.27, 8.94, 9.56, 10.43, 10.8, 10.8, 10.8, 10.8, 11.18, 11.18, 11.18, 11.18, 11.18, 11.62, 11.62, 12.07, 12.07, 12.52, 12.52, 12.52, 12.96, 12.96, 12.96, 13.41, 13.41, 13.41, 13.41, 13.86, 13.86, 13.86, 14.3, 14.3, 13.86, 13.41, 13.41, 13.41, 12.96, 12.96, 12.96, 13.41, 13.41, 12.96, 12.52, 12.52, 12.07, 12.07, 12.07, 11.21, 10.8, 11.21, 11.21, 11.84, 11.46, 11.62, 11.62, 12.07, 11.62, 10.73, 10.73, 10.28, 10.28, 10.28, 9.7, 9.39, 8.94, 8.49, 8.49, 8.05, 7.6, 7.6, 7.21, 7.63, 7.63, 7.21, 6.79, 6.79, 6.79, 6.32, 7.06, 7.15, 6.28, 7.15, 6.18, 6.91, 7.28, 8.4, 8.58, 8.6, 9.77, 10.4, 11.64, 14.42, 18.69, 18.75, 12.57, 11.06, 10.12, 9.8, 10.25, 9.66, 9.56, 10.48, 11.2, 10.96, 10.96, 10.96, 11.18, 11.18, 11.18, 11.18, 11.18, 11.62, 11.62, 12.07, 12.07, 12.52, 12.52, 12.52, 12.96, 12.96, 12.96, 13.41, 13.41, 13.41, 13.41, 13.86, 13.86, 13.86, 13.86, 13.86, 13.86, 13.41, 13.41, 13.41, 12.96, 12.96, 12.96, 13.41, 12.96, 12.52, 12.52, 12.52, 12.07, 12.07, 11.62, 11.4, 11.71, 11.84, 11.4, 11.4, 11.02, 11.18, 11.18, 11.18, 11.18, 10.73, 10.28, 10.28, 10.28, 10.28, 9.83, 9.83, 9.39, 8.94, 8.49, 8.05, 8.05, 8.05, 8.05, 8.05, 8.05, 7.6, 7.15, 7.6, 7.6, 6.8, 6.32, 5.72, 6.0, 8.0, 7.2, 7.07, 7.76, 8.4, 7.96, 8.6, 8.55, 9.43, 10.66, 12.27, 15.34, 17.52, 12.96, 10.52, 9.92, 10.22, 10.75, 11.42, 11.03, 10.28, 10.63, 10.6, 10.6, 10.6, 11.18, 11.18, 11.18, 11.18, 11.18, 11.62, 11.62, 12.07, 12.07, 12.52, 12.52, 12.52, 12.96, 12.96, 12.96, 13.41, 13.41, 13.41, 13.41, 13.86, 13.86, 13.86, 13.86, 13.86, 13.86, 13.41, 13.41, 13.41, 12.96, 12.96, 12.96, 13.41, 12.96, 12.52, 12.52, 12.52, 12.07, 12.07, 11.62, 11.4, 11.71, 11.84, 11.4, 11.4, 11.02, 11.18, 11.18, 11.18, 11.18, 10.73, 10.28, 10.28, 10.28, 10.28, 9.83, 9.83, 9.39, 8.94, 8.49, 8.05, 8.05, 8.05, 8.05, 8.05, 8.05, 7.6, 7.15, 7.6, 7.6, 6.8, 6.32, 5.72, 6.0, 8.0, 7.2, 7.07, 7.76, 8.4, 7.96, 8.6, 8.55, 9.05, 10.04, 11.28, 12.62, 14.19, 13.28, 10.92, 10.27, 10.75, 11.58, 12.46, 12.52, 11.9, 10.18, 8.94, 8.94, 8.94]}, {"header": {"dx": 0.06612293990616946, "dy": 0.0552356325346848, "nx": 98, "ny": 59, "la1": 35.046912555036876, "la2": 31.78801023549047, "lo1": -121.43107172385933, "lo2": -114.95102361305473, "refTime": "2026041119", "parameterCategory": 1, "parameterNumber": 3}, "data": [10.52, 10.52, 11.75, 12.5, 12.79, 13.02, 13.15, 13.94, 13.94, 14.42, 13.55, 11.14, 10.04, 8.94, 7.81, 8.73, 9.7, 9.45, 9.6, 10.0, 9.3, 9.67, 8.47, 7.59, 8.22, 8.02, 7.41, 6.45, 6.16, 5.4, 6.21, 5.6, 6.7, 4.15, -8.18, -6.71, -7.15, -7.6, -6.8, -6.44, -6.42, -5.0, 0.0, 9.17, 10.12, 10.75, 12.33, 14.29, 14.3, 13.6, 11.03, 10.98, 10.22, 10.12, 9.67, 8.95, 8.45, 7.63, 7.89, 7.26, 7.26, 6.88, 6.0, 6.36, 6.76, 7.2, 7.95, 7.2, 7.68, 9.2, 10.76, 11.04, 9.92, 8.43, 7.0, 5.81, 6.98, 7.96, 9.8, 8.53, 5.2, 5.95, 6.95, 6.32, 7.81, 7.51, 6.63, 6.45, 8.82, 10.85, 12.53, 12.53, 12.3, 12.04, 11.92, 11.41, 10.04, 9.4, 9.8, 10.52, 11.09, 12.11, 12.79, 13.44, 13.57, 13.94, 14.37, 14.37, 13.11, 12.6, 10.16, 8.07, 9.67, 9.58, 9.45, 11.03, 10.6, 9.2, 11.09, 10.09, 10.09, 9.82, 8.07, 7.9, 7.65, 6.71, 7.27, 7.56, 9.8, 12.37, 10.86, 6.24, 0.0, -7.5, -8.05, -8.49, -8.33, -9.13, -10.8, 0.0, 9.17, 12.13, 13.06, 14.31, 15.91, 15.25, 14.09, 11.39, 10.63, 10.22, 9.8, 9.4, 9.02, 8.45, 7.89, 7.89, 7.49, 6.88, 6.88, 6.0, 5.8, 6.53, 7.69, 8.51, 7.95, 7.44, 8.41, 9.39, 10.19, 9.92, 9.14, 7.2, 5.99, 6.6, 7.44, 7.96, 9.8, 8.53, 5.2, 5.95, 6.95, 6.32, 7.81, 7.51, 6.63, 6.45, 8.82, 10.85, 12.53, 12.53, 12.3, 12.04, 11.92, 11.41, 10.04, 9.4, 9.02, 10.52, 11.09, 11.53, 12.79, 13.86, 13.99, 14.31, 14.81, 14.37, 12.24, 10.32, 10.04, 9.3, 8.58, 9.32, 10.27, 10.88, 10.46, 11.09, 9.8, 10.0, 9.3, 10.55, 11.37, 8.47, 8.07, 7.27, 7.59, 9.46, 11.33, 13.19, 14.79, 9.8, 4.58, -7.59, -9.83, -9.39, -9.83, -10.58, -6.94, 10.82, 14.39, 15.7, 16.59, 15.91, 16.37, 13.76, 11.76, 10.28, 9.89, 9.8, 9.36, 8.87, 8.37, 7.63, 7.63, 7.49, 6.88, 6.88, 6.0, 6.0, 6.15, 7.43, 8.91, 9.8, 9.49, 9.34, 8.87, 8.65, 9.67, 8.05, 7.31, 6.69, 5.81, 6.18, 7.36, 8.87, 11.09, 8.22, 7.59, 8.18, 9.39, 8.94, 8.72, 8.55, 7.64, 7.81, 10.32, 11.79, 13.39, 13.32, 12.63, 12.33, 11.41, 10.04, 9.4, 9.04, 9.02, 9.8, 11.44, 11.53, 12.79, 13.86, 14.42, 14.75, 14.81, 13.94, 12.24, 10.25, 10.04, 8.41, 8.49, 9.7, 10.88, 11.71, 11.03, 11.03, 10.18, 10.18, 10.4, 10.16, 9.89, 10.19, 8.55, 8.34, 8.93, 10.46, 11.56, 12.18, 12.21, 11.53, 9.48, 3.82, -8.85, -12.07, -11.4, -7.44, 12.57, 17.64, 17.94, 16.39, 14.71, 13.38, 10.79, 10.41, 10.01, 9.96, 9.17, 8.59, 8.59, 8.59, 8.05, 7.38, 7.03, 6.65, 6.88, 6.57, 6.0, 6.15, 6.72, 8.91, 10.69, 11.63, 11.7, 11.22, 10.18, 8.46, 8.94, 8.05, 7.12, 6.47, 6.34, 6.1, 6.2, 9.48, 13.02, 10.79, 8.8, 9.54, 9.39, 10.28, 10.18, 9.6, 9.6, 9.9, 11.37, 13.47, 14.31, 13.25, 12.39, 11.27, 10.43, 9.4, 8.73, 9.81, 9.02, 9.8, 11.44, 11.9, 12.79, 13.7, 14.28, 14.75, 14.75, 13.94, 12.2, 10.25, 10.16, 8.49, 8.73, 10.4, 11.03, 11.71, 11.78, 11.45, 12.04, 10.75, 10.18, 11.09, 10.38, 11.09, 11.3, 10.68, 11.03, 9.75, 10.28, 10.7, 10.62, 9.86, 8.22, 6.98, 5.98, 2.54, 2.57, 14.08, 18.24, 16.66, 14.19, 12.2, 11.2, 10.04, 10.04, 10.01, 10.03, 9.59, 8.72, 8.72, 8.72, 8.3, 7.78, 7.63, 7.03, 6.65, 6.2, 6.36, 5.43, 6.53, 8.61, 11.35, 12.27, 12.36, 12.97, 12.81, 12.43, 11.32, 8.43, 9.19, 7.78, 7.68, 6.11, 5.18, 8.31, 9.17, 13.99, 13.86, 9.83, 9.83, 9.83, 10.14, 10.84, 10.78, 10.6, 11.11, 12.63, 13.89, 12.93, 11.96, 11.54, 10.32, 10.04, 9.4, 9.08, 10.6, 9.02, 9.8, 10.77, 11.44, 12.5, 13.7, 14.28, 14.66, 14.75, 14.11, 11.76, 10.25, 9.77, 8.73, 9.7, 10.46, 11.35, 11.71, 11.78, 12.22, 12.22, 11.84, 12.83, 12.83, 12.39, 12.04, 12.04, 11.92, 11.5, 11.09, 9.21, 9.21, 9.45, 9.27, 9.48, 9.76, 9.17, 7.13, 11.48, 17.22, 15.68, 13.7, 11.79, 11.02, 10.66, 10.66, 10.37, 9.69, 9.69, 8.85, 8.07, 8.37, 8.42, 7.78, 8.05, 7.03, 6.79, 6.36, 6.0, 5.28, 5.6, 7.41, 11.35, 12.6, 12.81, 13.39, 13.36, 12.81, 12.73, 12.29, 11.9, 9.17, 8.97, 7.6, 8.68, 9.42, 10.75, 12.39, 12.52, 12.52, 10.28, 10.73, 10.73, 10.65, 11.12, 11.44, 11.28, 13.2, 14.03, 13.35, 11.96, 11.96, 11.45, 10.32, 9.05, 9.08, 10.18, 10.99, 8.31, 9.8, 9.8, 11.44, 12.9, 14.11, 14.28, 14.66, 14.66, 13.23, 11.05, 10.02, 9.4, 9.2, 10.4, 10.91, 11.78, 12.22, 12.22, 12.27, 12.66, 14.19, 14.66, 15.11, 14.6, 14.11, 14.99, 13.75, 12.33, 9.48, 9.6, 9.11, 9.46, 9.2, 9.46, 10.43, 10.12, 9.02, 10.3, 12.45, 14.19, 12.66, 12.72, 12.25, 12.11, 10.66, 10.98, 9.96, 9.69, 8.85, 8.85, 8.53, 8.21, 7.78, 7.19, 6.79, 6.15, 5.25, 5.43, 4.49, 6.21, 10.79, 12.58, 13.28, 13.19, 13.39, 12.9, 12.01, 11.52, 11.37, 10.42, 8.33, 7.32, 8.0, 9.92, 14.13, 0.0, 0.0, 13.41, 9.17, 10.84, 12.07, 11.62, 11.62, 11.53, 10.96, 13.57, 13.99, 13.43, 12.21, 11.54, 11.11, 11.03, 9.42, 9.16, 9.89, 10.99, 11.38, 8.05, 8.31, 10.12, 11.8, 13.29, 14.11, 14.11, 14.66, 14.23, 12.75, 10.58, 9.26, 9.97, 10.46, 11.87, 10.91, 11.84, 12.88, 12.71, 12.66, 12.89, 13.28, 13.41, 15.65, 15.53, 14.47, 15.2, 15.34, 12.65, 11.5, 11.21, 11.91, 12.52, 12.27, 10.0, 10.01, 9.17, 7.06, 8.24, 10.68, 12.46, 13.32, 14.79, 15.14, 13.1, 10.73, 10.01, 9.96, 10.66, 10.59, 8.64, 8.53, 7.93, 6.94, 6.94, 6.31, 5.06, 4.64, 4.17, 3.97, 7.9, 12.3, 13.15, 12.98, 13.19, 12.26, 11.79, 11.22, 9.61, 8.51, 7.35, 5.65, 4.53, 7.4, 10.02, 12.65, 0.0, 0.0, 0.0, -0.0, -0.0, 11.45, 11.62, 11.62, 12.07, 12.46, 12.39, 12.13, 11.16, 11.2, 11.64, 11.21, 10.79, 10.35, 10.35, 10.6, 11.38, 11.38, 7.34, 8.58, 9.31, 11.2, 12.89, 13.89, 14.11, 14.11, 13.8, 12.31, 10.56, 10.24, 12.96, 12.58, 11.72, 12.14, 12.88, 12.96, 13.33, 12.86, 13.23, 13.15, 13.41, 14.3, 12.39, 11.4, 9.83, 13.01, 12.52, 11.09, 13.59, 15.2, 15.2, 13.59, 10.48, 7.44, 6.44, 8.58, 8.55, 9.6, 11.5, 13.15, 12.42, 10.79, 9.82, 9.97, 11.37, 12.11, 11.66, 11.28, 10.36, 8.93, 8.12, 7.64, 7.1, 6.24, 5.57, 4.62, 4.15, 6.16, 11.21, 12.96, 12.3, 12.98, 12.65, 11.54, 10.65, 9.52, 7.57, 5.65, 3.9, 2.79, 4.54, 8.06, 10.12, 6.6, 0.0, 0.0, 0.0, 0.0, 15.65, 8.85, 12.07, 11.4, 11.18, 10.48, 10.01, 10.37, 9.67, 10.55, 11.45, 11.56, 10.79, 11.39, 10.99, 10.99, 11.77, 10.99, 6.95, 7.58, 9.6, 11.2, 12.89, 13.89, 14.11, 14.11, 13.7, 11.99, 11.4, 12.01, 12.0, 13.59, 13.32, 13.31, 14.3, 14.75, 14.3, 12.96, 12.52, 12.96, 13.59, 14.03, 13.59, 10.96, 8.94, 10.41, 13.19, 12.79, 13.88, 16.09, 15.2, 13.15, 9.66, 7.59, 7.27, 8.4, 10.4, 11.26, 10.79, 10.23, 8.75, 8.58, 8.58, 10.16, 10.04, 10.62, 10.73, 10.63, 10.63, 10.98, 9.96, 9.26, 8.64, 8.31, 8.22, 6.86, 7.56, 10.21, 12.68, 13.49, 14.53, 13.11, 12.65, 11.54, 10.95, 8.85, 7.45, 4.95, 3.07, 3.28, 6.54, 8.85, 10.12, 0.0, 0.0, -5.6, 0.0, 11.8, 15.24, 13.9, 11.26, 10.94, 10.35, 9.17, 8.69, 8.22, 8.82, 10.4, 10.88, 10.6, 10.62, 11.39, 11.2, 11.2, 12.39, 10.4, 5.81, 6.4, 8.57, 11.33, 13.19, 13.89, 13.89, 13.7, 12.87, 11.99, 11.87, 12.66, 13.33, 13.77, 14.16, 14.16, 16.09, 15.2, 15.2, 16.09, 17.2, 17.2, 16.12, 13.7, 14.31, 11.71, 10.28, 10.28, 12.58, 11.9, 11.99, 12.71, 10.79, 9.97, 8.22, 8.22, 8.73, 10.0, 9.86, 10.43, 10.77, 10.09, 9.08, 9.08, 9.6, 9.38, 9.77, 9.3, 9.17, 9.08, 11.04, 12.27, 12.86, 12.79, 12.56, 12.23, 12.23, 9.4, 9.86, 11.46, 13.65, 14.64, 13.91, 13.19, 12.89, 13.23, 13.18, 12.5, 9.7, 8.31, 6.85, 6.95, 7.59, 6.4, 0.0, -10.12, -11.6, -9.48, 12.27, 13.59, 13.99, 13.89, 13.14, 11.76, 11.09, 9.17, 8.53, 7.95, 9.46, 10.68, 10.68, 10.46, 11.44, 11.8, 11.55, 12.39, 11.2, 10.6, 5.81, 6.4, 8.31, 11.33, 13.19, 13.99, 13.89, 13.48, 12.66, 11.85, 12.3, 12.72, 13.96, 13.88, 13.31, 12.42, 12.42, 14.16, 15.65, 16.99, 15.87, 14.84, 13.42, 14.39, 13.01, 12.58, 12.14, 7.5, 9.2, 7.44, 6.95, 9.2, 7.59, 6.64, 7.27, 7.27, 7.81, 8.82, 9.16, 9.48, 9.8, 9.8, 9.5, 9.08, 8.82, 8.4, 10.68, 10.68, 10.48, 11.5, 12.1, 13.28, 15.18, 16.43, 16.0, 14.92, 15.35, 11.9, 9.77, 12.04, 15.11, 15.08, 13.91, 13.52, 14.3, 16.31, 17.42, 17.42, 15.82, 12.89, 11.2, 9.8, 6.0, 0.0, -9.48, -11.99, -11.99, 6.6, 13.29, 13.02, 13.83, 13.51, 12.87, 13.1, 12.29, 11.7, 10.01, 9.48, 10.79, 12.04, 11.09, 11.03, 11.2, 11.2, 10.99, 11.38, 10.6, 10.99, 4.52, 6.4, 9.16, 12.0, 13.19, 13.99, 13.48, 13.07, 13.07, 12.25, 12.25, 13.15, 13.39, 13.81, 14.75, 14.75, 13.32, 12.83, 12.39, 12.79, 13.23, 12.04, 11.12, 10.12, 10.12, 9.77, 8.85, 10.01, 7.9, 6.32, 6.95, 6.98, 6.98, 6.7, 6.42, 6.14, 6.3, 7.9, 7.9, 7.56, 8.15, 9.17, 9.16, 9.32, 9.13, 10.58, 11.51, 11.61, 11.09, 12.04, 11.28, 12.2, 13.28, 14.28, 15.83, 16.39, 15.68, 13.15, 10.43, 12.04, 14.22, 14.15, 13.39, 13.65, 15.13, 16.76, 18.24, 19.0, 17.67, 16.87, 14.15, 12.64, 4.98, -11.62, -11.62, -13.41, 7.0, 13.23, 12.73, 13.14, 12.42, 12.22, 10.78, 10.31, 12.19, 10.77, 10.47, 11.33, 12.42, 12.79, 12.13, 10.94, 10.99, 10.8, 10.35, 11.12, 10.8, 10.99, 4.52, 6.4, 9.16, 11.64, 13.19, 13.48, 13.48, 13.07, 12.5, 11.75, 12.39, 12.79, 13.19, 14.23, 14.65, 14.79, 14.38, 14.61, 13.99, 13.57, 13.57, 12.27, 11.8, 10.43, 10.75, 8.31, 6.2, 6.2, 5.8, 5.4, 4.6, 6.44, 6.97, 6.42, 6.42, 5.86, 6.64, 7.9, 6.58, 6.87, 7.15, 8.59, 8.94, 9.58, 9.13, 10.14, 9.11, 10.18, 10.6, 11.03, 11.03, 11.06, 11.18, 11.62, 11.46, 10.46, 11.9, 12.01, 13.06, 11.59, 12.96, 13.8, 13.99, 14.31, 14.09, 14.55, 15.13, 16.54, 18.26, 15.47, 14.68, 15.63, 7.21, -9.3, -10.28, 13.57, 14.95, 14.13, 13.23, 13.18, 11.82, 10.31, 9.11, 7.74, 9.53, 8.94, 9.71, 10.18, 10.41, 10.99, 11.29, 11.12, 10.58, 10.04, 9.17, 10.04, 10.8, 11.8, 4.52, 6.4, 8.31, 11.64, 12.79, 13.19, 13.19, 12.51, 12.13, 12.13, 12.13, 12.13, 13.19, 13.59, 14.39, 14.36, 14.79, 14.39, 13.99, 14.84, 13.03, 12.16, 12.16, 9.12, 7.0, 3.07, 3.07, 0.0, 0.0, 0.0, 4.1, 5.0, 6.2, 6.17, 6.17, 7.87, 8.03, 7.21, 6.98, 5.46, 6.7, 8.22, 8.94, 9.2, 8.72, 9.21, 9.64, 9.13, 9.33, 9.75, 10.18, 10.14, 10.28, 8.49, 8.06, 7.81, 6.17, 7.54, 12.86, 14.47, 12.03, 12.14, 13.15, 13.96, 14.68, 14.4, 14.42, 13.39, 10.55, 11.77, 11.05, 9.32, 9.5, 0.0, 8.85, 14.79, 14.64, 13.85, 12.72, 11.29, 9.89, 7.74, 6.88, 5.62, 5.18, 7.68, 9.8, 9.77, 9.66, 10.03, 11.17, 11.5, 9.97, 9.17, 9.3, 11.39, 11.97, 11.97, 4.52, 5.81, 9.31, 10.86, 12.79, 12.79, 12.13, 12.51, 12.51, 12.13, 12.13, 12.51, 12.51, 13.59, 13.97, 14.36, 13.39, 13.76, 14.79, 13.8, 12.52, 9.39, 7.0, 3.79, 0.0, 0.0, 0.0, 0.0, 0.0, 0.0, 0.0, 7.69, 7.54, 4.6, 6.95, 6.91, 6.64, 6.3, 6.71, 6.44, 6.42, 8.38, 8.58, 9.13, 8.72, 8.3, 8.3, 8.3, 8.3, 8.72, 9.13, 8.72, 8.8, 7.81, 7.44, 6.32, 7.51, 8.55, 11.2, 11.6, 9.77, 9.67, 9.67, 10.8, 11.4, 11.84, 10.27, 10.41, 9.62, 9.17, 6.79, 6.07, 6.64, 10.6, 13.23, 14.64, 14.56, 12.23, 10.71, 9.12, 8.18, 6.2, 4.81, 5.4, 5.64, 7.9, 9.3, 10.01, 9.96, 9.26, 10.38, 9.67, 8.82, 8.82, 10.2, 11.27, 11.92, 11.92, 4.11, 5.81, 9.31, 10.52, 12.13, 12.13, 12.13, 12.51, 11.2, 11.2, 12.0, 12.0, 12.0, 12.37, 12.73, 12.36, 12.02, 14.36, 13.76, 11.7, 7.2, 3.9, 3.9, 0.0, -2.98, -6.8, -7.0, -11.06, -11.06, -11.38, 11.06, 12.52, 11.52, 8.85, 6.18, 6.91, 6.87, 8.23, 7.27, 7.27, 8.58, 7.81, 8.43, 7.4, 8.3, 8.3, 7.67, 7.67, 7.15, 7.15, 7.15, 6.32, 6.64, 6.95, 7.87, 7.87, 8.43, 8.43, 8.38, 7.44, 7.44, 6.7, 5.52, 7.59, 10.18, 9.39, 8.8, 8.43, 9.46, 9.8, 7.36, 5.18, 7.44, 12.29, 16.45, 14.2, 12.84, 10.99, 9.67, 8.77, 8.68, 7.97, 7.68, 7.89, 8.37, 8.22, 8.31, 9.26, 9.26, 9.26, 10.73, 9.17, 9.3, 10.6, 11.2, 11.09, 11.6, 11.6, 5.31, 5.81, 8.58, 10.52, 11.75, 12.13, 11.64, 10.86, 11.2, 11.2, 11.2, 11.2, 12.0, 12.37, 12.37, 11.33, 11.68, 13.1, 12.56, 8.93, 0.0, 0.0, 8.43, 2.89, 0.0, -9.12, -13.02, -13.02, -11.38, 11.7, 13.23, 13.76, 12.71, 10.43, 7.27, 5.06, 6.63, 7.87, 8.23, 8.23, 7.51, 7.28, 6.9, 7.28, 7.67, 7.67, 6.98, 6.32, 6.32, 6.32, 5.36, 5.36, 5.36, 6.32, 7.51, 8.05, 7.68, 6.95, 6.42, 5.95, 6.2, 6.2, 5.52, 6.17, 7.27, 0.0, 5.69, 7.6, 7.56, 6.97, 7.0, 6.85, 9.34, 12.07, 12.3, 10.61, 10.17, 10.98, 10.49, 9.78, 10.11, 10.12, 10.12, 10.15, 10.51, 9.89, 9.17, 8.53, 8.53, 9.26, 8.97, 9.17, 9.58, 10.96, 11.36, 11.02, 10.66, 10.66, 5.31, 6.95, 9.02, 10.52, 11.75, 11.28, 10.86, 10.86, 11.2, 11.2, 11.2, 11.2, 11.2, 12.0, 12.0, 12.57, 12.42, 12.73, 11.88, 7.54, 0.0, 11.06, 13.7, 11.06, 8.85, 7.4, 0.0, 11.7, 12.33, 12.27, 12.73, 12.22, 11.7, 9.35, 8.31, 6.24, 4.44, 4.44, 5.7, 7.9, 7.56, 7.21, 7.51, 7.67, 7.33, 7.33, 5.86, 5.59, 6.32, 5.36, 6.64, 6.32, 6.64, 6.32, 7.33, 7.33, 7.68, 8.03, 7.59, 6.87, 5.95, 5.95, 5.0, 5.46, 4.4, 2.17, 4.83, 6.52, 6.11, 7.02, 6.73, 7.74, 9.0, 8.99, 7.15, 5.65, 4.19, 5.83, 9.64, 13.28, 12.9, 11.79, 12.16, 11.77, 11.47, 10.84, 9.89, 8.9, 8.64, 8.6, 9.34, 9.76, 10.2, 11.09, 11.99, 11.04, 10.79, 10.79, 5.31, 6.95, 9.02, 10.52, 10.52, 10.52, 10.86, 10.86, 10.43, 10.43, 10.43, 10.43, 10.43, 11.33, 11.33, 10.99, 11.33, 10.99, 11.06, 8.43, 9.92, 14.84, 14.75, 14.79, 13.39, 12.92, 12.92, 12.0, 12.16, 11.77, 11.38, 10.47, 9.35, 9.61, 9.35, 6.88, 4.08, 3.77, 4.2, 3.8, 5.1, 5.36, 5.82, 5.89, 5.89, 6.42, 4.83, 4.83, 4.83, 5.36, 6.32, 6.32, 6.98, 6.98, 6.45, 6.79, 7.27, 6.64, 6.77, 6.2, 5.95, 4.6, 4.8, 5.29, 4.6, 5.59, 6.32, 7.13, 7.27, 6.45, 6.36, 5.99, 5.4, 2.91, 0.0, -1.02, -1.0, 1.11, 11.13, 14.67, 14.41, 12.33, 11.38, 11.38, 10.34, 9.43, 8.79, 8.85, 8.27, 8.3, 9.76, 10.37, 11.02, 11.92, 11.44, 11.39, 10.73, 10.73, 3.98, 6.95, 9.02, 10.52, 10.52, 10.52, 9.31, 9.31, 9.6, 9.6, 9.6, 10.43, 10.43, 10.43, 11.68, 11.68, 10.75, 10.82, 9.17, 9.49, 12.01, 14.39, 13.97, 12.65, 11.68, 11.06, 9.89, 10.18, 10.47, 10.76, 10.76, 9.61, 9.61, 9.61, 7.4, 6.8, 6.0, 5.2, 4.36, 4.0, 4.74, 5.63, 5.9, 5.9, 6.18, 6.7, 4.83, 4.83, 4.83, 5.36, 7.15, 7.15, 6.98, 6.98, 7.33, 6.79, 6.64, 6.48, 6.87, 5.7, 5.7, 4.6, 4.6, 5.29, 4.96, 6.64, 8.0, 8.93, 9.17, 8.02, 6.79, 6.54, 5.16, 0.0, -5.04, -7.21, 0.0, 8.21, 11.69, 11.2, 12.64, 12.81, 10.83, 10.01, 9.6, 9.8, 9.89, 9.85, 9.53, 7.96, 9.4, 11.04, 11.28, 11.12, 10.91, 10.24, 9.9, 9.9, 3.98, 7.34, 9.02, 9.8, 9.8, 9.8, 9.02, 9.31, 9.6, 9.6, 9.6, 9.6, 10.43, 10.43, 9.44, 10.75, 10.75, 10.12, 8.66, 10.43, 10.3, 11.38, 12.02, 11.06, 10.33, 9.42, 10.59, 10.02, 9.09, 9.35, 9.61, 8.21, 8.21, 7.4, 7.4, 7.2, 6.6, 5.27, 4.54, 4.99, 5.36, 6.18, 6.18, 6.64, 5.89, 5.3, 4.4, 5.06, 4.83, 6.32, 7.28, 7.28, 6.98, 6.98, 7.33, 6.64, 7.06, 7.27, 7.27, 6.14, 4.98, 5.21, 5.46, 6.11, 7.13, 7.87, 8.6, 9.2, 9.52, 10.73, 10.94, 11.73, 10.73, 7.4, -12.07, 0.0, 10.19, 12.64, 12.33, 10.3, 9.67, 9.39, 10.61, 10.18, 10.01, 10.92, 11.25, 11.54, 11.15, 9.62, 10.04, 10.9, 10.81, 10.55, 9.9, 9.9, 9.59, 9.59, 4.38, 4.38, 7.34, 9.8, 9.8, 9.02, 9.02, 8.31, 8.57, 8.57, 8.83, 8.83, 8.57, 9.44, 9.44, 9.73, 9.73, 9.44, 7.93, 8.18, 8.93, 10.02, 10.43, 9.49, 10.05, 9.42, 9.67, 9.42, 9.17, 7.76, 7.76, 7.98, 7.2, 7.2, 7.2, 7.2, 7.0, 6.51, 5.64, 5.21, 5.46, 6.18, 6.64, 6.32, 5.59, 5.3, 5.06, 4.83, 6.01, 6.28, 7.28, 6.63, 6.98, 6.98, 6.98, 7.33, 7.51, 7.35, 7.59, 5.44, 6.32, 6.64, 6.32, 7.06, 7.76, 8.82, 9.2, 8.99, 9.58, 10.2, 11.33, 12.09, 9.54, 6.9, 5.95, 4.96, 6.63, 7.82, 8.13, 7.6, 7.0, 6.43, 7.74, 9.53, 10.92, 12.26, 12.26, 12.22, 12.16, 11.79, 9.92, 9.92, 9.9, 9.53, 9.56, 9.23, 9.62, 9.62, 4.38, 4.38, 8.05, 8.87, 9.02, 8.05, 8.05, 7.58, 7.82, 7.82, 8.83, 8.83, 8.83, 8.57, 9.73, 9.73, 9.73, 9.44, 8.18, 8.18, 8.68, 10.05, 9.49, 8.94, 9.22, 8.93, 9.42, 9.67, 9.67, 8.21, 7.98, 7.54, 7.0, 7.0, 7.0, 7.0, 7.0, 7.34, 5.86, 5.95, 6.77, 6.77, 6.48, 5.89, 5.3, 5.0, 6.14, 5.86, 6.63, 6.98, 6.98, 6.98, 6.63, 6.63, 6.63, 7.44, 6.79, 7.41, 8.24, 7.68, 6.18, 6.91, 7.06, 7.76, 8.06, 8.82, 9.03, 9.48, 8.82, 8.82, 8.12, 6.42, 8.94, 9.8, 7.49, 4.52, 4.08, 2.82, 3.47, 2.5, 2.45, 4.05, 6.78, 10.87, 11.64, 11.6, 11.54, 11.54, 11.79, 12.01, 10.51, 8.85, 8.76, 8.46, 9.23, 9.62, 9.92, 9.92, 6.2, 6.2, 8.05, 8.87, 8.59, 7.79, 7.34, 7.58, 7.58, 7.82, 8.06, 8.83, 8.83, 8.83, 8.83, 9.73, 8.18, 8.18, 8.18, 8.43, 8.68, 9.17, 10.33, 9.77, 9.22, 8.43, 9.17, 9.42, 9.42, 8.43, 8.21, 7.98, 7.0, 6.8, 6.8, 6.8, 6.8, 6.6, 6.63, 6.44, 6.77, 6.48, 6.18, 6.18, 5.59, 4.83, 4.46, 4.14, 4.14, 4.61, 4.94, 6.14, 5.69, 6.63, 7.6, 7.44, 7.44, 6.55, 7.56, 8.18, 8.18, 6.91, 7.15, 7.76, 8.43, 9.03, 9.03, 9.05, 9.05, 6.77, 4.62, 4.66, 8.42, 11.44, 10.06, 8.57, 4.32, 0.0, 0.0, 0.0, 1.47, 5.64, 10.75, 13.58, 12.41, 10.58, 10.51, 10.51, 10.75, 11.01, 11.37, 8.66, 8.59, 8.97, 8.93, 9.27, 9.27, 9.27, 6.88, 6.88, 6.65, 8.59, 7.79, 7.79, 6.2, 6.4, 6.6, 6.6, 6.6, 6.8, 7.54, 7.76, 7.76, 8.43, 8.18, 8.18, 8.18, 8.43, 8.68, 9.17, 9.42, 9.17, 8.93, 8.43, 8.68, 9.17, 9.42, 8.43, 8.43, 8.21, 7.4, 7.0, 6.8, 6.8, 6.8, 6.8, 7.34, 6.71, 7.27, 6.77, 6.48, 6.18, 5.89, 4.71, 3.91, 3.6, 3.6, 3.8, 4.12, 4.95, 6.98, 8.0, 7.44, 7.44, 6.63, 7.28, 7.44, 8.0, 7.9, 7.9, 6.45, 7.44, 8.21, 8.95, 9.42, 9.43, 8.38, 6.31, 4.44, 5.31, 6.16, 9.96, 12.51, 12.42, 8.8, 2.12, 0.0, 3.68, 6.65, 11.44, 13.78, 13.41, 11.16, 10.92, 10.84, 10.43, 10.01, 9.66, 10.71, 10.51, 9.24, 10.12, 10.03, 9.3, 8.93, 8.93, 6.65, 6.65, 7.44, 7.44, 6.65, 6.88, 6.2, 6.4, 6.6, 6.6, 6.6, 6.8, 6.8, 7.76, 7.76, 7.54, 6.6, 6.6, 6.6, 7.82, 8.05, 8.93, 9.17, 9.42, 9.17, 8.93, 8.68, 8.93, 9.17, 9.17, 8.21, 7.98, 7.98, 7.4, 7.4, 7.2, 7.0, 7.76, 8.83, 9.02, 8.22, 7.74, 7.4, 6.18, 5.36, 4.12, 4.12, 3.27, 3.27, 3.27, 4.26, 5.69, 6.82, 6.32, 6.82, 6.11, 6.63, 6.9, 7.2, 6.79, 7.59, 6.95, 7.9, 7.82, 9.2, 8.4, 9.03, 7.68, 7.59, 5.76, 5.0, 4.06, 5.18, 8.0, 11.22, 14.13, 11.94, 8.99, 8.51, 7.73, 8.85, 12.07, 13.97, 12.62, 10.55, 10.52, 10.75, 10.34, 9.89, 9.24, 8.94, 9.95, 9.89, 10.43, 11.07, 9.8, 9.02, 9.02, 6.65, 6.65, 7.44, 6.65, 6.65, 6.2, 6.2, 6.4, 6.6, 6.6, 6.6, 6.8, 6.8, 7.76, 7.76, 7.76, 5.81, 4.05, 4.81, 5.81, 8.05, 8.28, 7.4, 7.4, 7.4, 7.4, 7.2, 7.0, 6.16, 7.98, 7.98, 7.98, 7.98, 7.98, 7.2, 7.2, 5.65, 7.76, 9.09, 10.43, 9.84, 8.58, 7.06, 6.18, 5.63, 4.56, 3.81, 3.45, 2.54, 3.6, 5.69, 6.82, 6.7, 6.7, 6.35, 6.11, 6.63, 6.9, 6.82, 6.79, 6.73, 6.64, 7.76, 8.43, 8.8, 9.6, 8.12, 6.48, 5.7, 5.35, 4.17, 3.32, 3.56, 4.81, 6.81, 8.42, 12.65, 10.31, 7.93, 6.45, 7.59, 10.0, 10.94, 12.42, 10.24, 9.8, 9.02, 9.39, 9.11, 8.95, 9.36, 9.24, 10.54, 10.01, 11.06, 9.91, 9.91, 9.91, 5.28, 5.28, 6.65, 6.65, 6.65, 6.2, 6.2, 6.4, 5.99, 6.6, 6.6, 6.8, 6.8, 7.0, 7.76, 6.16, 4.18, 4.05, 2.5, 5.81, 8.05, 8.05, 8.28, 5.23, 5.23, 5.23, 5.09, 4.95, 6.16, 6.16, 6.34, 6.34, 6.34, 6.34, 5.65, 5.65, 5.65, 6.34, 7.76, 11.06, 11.09, 8.94, 7.51, 7.56, 6.95, 5.36, 3.99, 3.61, 6.01, 5.15, 6.82, 7.03, 6.9, 6.35, 6.0, 5.72, 6.63, 6.63, 6.18, 6.11, 6.01, 6.32, 7.81, 8.6, 8.43, 8.55, 8.02, 6.17, 4.2, 3.82, 3.68, 4.49, 4.21, 2.62, 1.89, 3.13, 7.99, 11.9, 9.23, 7.19, 6.77, 7.92, 9.58, 8.44, 9.48, 8.18, 7.25, 8.14, 7.74, 8.45, 8.3, 7.38, 7.44, 9.02, 9.73, 10.19, 10.19, 10.19, 5.28, 5.28, 5.28, 5.28, 4.71, 4.87, 4.87, 4.52, 4.66, 5.99, 4.66, 5.18, 5.34, 5.49, 6.16, 6.16, 3.79, 1.89, 1.89, 2.5, 5.81, 6.8, 7.0, 7.2, 3.16, 3.24, 2.65, 4.95, 4.3, 2.21, 2.21, 4.3, 4.3, 4.3, 3.79, 3.79, 3.9, 3.9, 7.76, 11.06, 11.8, 10.01, 8.72, 6.91, 6.08, 5.46, 5.77, 8.53, 9.3, 8.43, 6.35, 6.35, 6.35, 6.35, 5.72, 6.06, 5.69, 5.69, 6.01, 5.37, 5.37, 6.79, 7.15, 7.15, 7.81, 8.18, 8.12, 7.9, 4.98, 3.3, 4.36, 6.24, 6.73, 4.91, 1.01, 0.0, 4.22, 6.99, 10.2, 9.42, 10.43, 8.58, 7.44, 6.97, 5.7, 6.65, 5.28, 5.81, 6.78, 6.57, 7.69, 6.98, 6.65, 7.49, 8.14, 9.12, 10.3, 10.3, 5.28, 5.28, 5.28, 5.28, 4.71, 4.87, 4.38, 4.52, 4.66, 4.66, 4.66, 4.66, 5.34, 5.49, 5.49, 5.49, 3.79, 1.68, 1.68, 2.15, 5.64, 2.98, 6.8, 7.0, 3.9, 3.9, 3.16, 2.57, 2.15, 0.0, 0.0, 0.0, 2.15, 2.15, 4.18, 3.69, 3.79, 3.79, 7.76, 11.06, 12.16, 10.73, 8.94, 7.64, 6.11, 6.3, 8.59, 10.09, 9.88, 8.47, 6.06, 6.06, 5.69, 6.06, 5.69, 5.37, 5.69, 6.01, 6.32, 6.32, 5.37, 6.01, 6.79, 7.13, 7.64, 7.28, 7.13, 7.59, 6.58, 6.14, 5.46, 6.59, 6.88, 7.15, 3.59, 0.0, 1.91, 6.66, 7.54, 11.9, 10.89, 11.26, 8.18, 5.75, 4.12, 3.53, 2.71, 4.11, 3.65, 4.74, 4.74, 4.08, 4.66, 6.2, 6.88, 8.4, 10.11, 10.11, 5.28, 5.28, 5.28, 5.28, 4.71, 4.87, 4.38, 4.52, 4.66, 4.66, 4.66, 4.66, 4.66, 5.34, 5.49, 3.79, 3.79, 1.73, 0.0, 0.0, 0.0, 2.15, 3.07, 3.79, 3.79, 3.9, 3.9, 2.98, 2.72, 2.02, 0.0, 0.0, 2.15, 2.15, 2.09, 1.89, 3.69, 3.79, 7.76, 11.06, 12.73, 11.44, 9.3, 7.47, 6.95, 7.59, 7.85, 8.83, 8.24, 6.18, 5.69, 5.69, 5.69, 5.37, 4.95, 5.37, 5.37, 5.69, 5.53, 5.82, 5.72, 5.37, 5.82, 5.53, 6.32, 6.32, 6.63, 6.95, 6.87, 6.24, 5.63, 5.9, 6.0, 5.71, 6.37, 4.12, 3.78, 6.08, 6.98, 8.51, 9.95, 8.97, 7.18, 4.38, 3.34, 1.84, 1.91, 0.0, 1.96, 2.63, 2.4, 3.25, 4.81, 6.88, 7.25, 8.72, 9.53, 9.53, 3.68, 3.68, 5.28, 4.71, 4.71, 4.38, 4.38, 4.52, 4.66, 4.66, 4.66, 4.66, 4.66, 4.66, 3.79, 3.79, 3.79, 1.56, 0.0, 0.0, 0.0, 0.0, 1.94, 2.15, 3.07, 3.79, 3.79, 3.69, 4.52, 5.09, 4.52, 4.81, 2.57, 2.21, 2.15, 1.89, 1.89, 3.69, 6.16, 10.02, 12.73, 12.51, 10.01, 7.81, 7.27, 7.9, 7.56, 8.44, 7.56, 5.53, 5.53, 5.24, 5.24, 4.95, 5.24, 5.24, 5.24, 5.24, 5.53, 5.82, 5.82, 4.87, 5.59, 5.15, 5.44, 6.01, 5.31, 3.8, 4.6, 5.32, 5.06, 4.6, 2.0, 2.64, 5.42, 7.45, 5.85, 5.4, 4.81, 4.95, 5.81, 4.67, 4.26, 3.47, 2.18, 3.1, 0.0, 0.0, 2.28, 2.81, 3.73, 5.36, 6.36, 7.25, 8.2, 8.72, 9.31, 9.31, 3.56, 3.56, 3.68, 4.71, 4.71, 4.38, 4.38, 4.52, 4.52, 4.66, 4.66, 4.66, 4.66, 4.66, 3.69, 3.79, 1.73, 1.51, 0.0, 0.0, 0.0, 0.0, 1.56, 3.3, 3.69, 4.3, 2.57, 2.98, 2.98, 5.48, 6.6, 6.6, 4.66, 2.5, 2.15, 2.15, 1.89, 2.15, 6.16, 10.02, 12.73, 12.37, 10.18, 8.15, 6.69, 6.5, 7.44, 8.01, 7.73, 6.11, 5.82, 5.82, 5.53, 5.24, 5.24, 5.24, 5.24, 5.24, 4.83, 5.53, 6.32, 5.69, 6.01, 6.32, 5.69, 5.44, 5.44, 4.71, 5.06, 4.23, 5.52, 5.0, 2.82, 0.89, 3.77, 8.97, 8.32, 4.38, 3.0, 2.01, 2.25, 2.28, 2.52, 4.12, 4.59, 5.63, 4.98, 2.28, 4.1, 4.28, 5.78, 6.31, 6.21, 6.67, 7.34, 8.1, 8.46, 8.46, 3.14, 3.14, 3.68, 3.25, 4.71, 4.24, 4.38, 4.52, 4.52, 4.66, 4.24, 4.66, 3.2, 3.2, 3.3, 3.39, 1.51, 0.0, 0.0, 0.0, 0.0, 0.0, 1.42, 3.07, 2.98, 2.98, 3.39, 2.15, 0.0, 2.98, 2.89, 2.81, 2.81, 2.35, 2.43, 0.0, 0.0, 0.0, 4.81, 9.77, 12.02, 12.37, 11.28, 7.56, 5.98, 5.32, 6.45, 6.7, 6.7, 6.58, 6.3, 6.64, 5.53, 5.53, 5.24, 5.24, 5.24, 5.24, 5.24, 5.53, 6.32, 6.32, 5.69, 6.01, 5.36, 5.36, 4.71, 4.44, 4.2, 4.99, 4.92, 5.4, 3.96, 2.47, 3.49, 6.48, 7.49, 5.94, 2.38, 1.34, 1.3, 2.88, 4.62, 5.81, 8.68, 7.78, 6.3, 5.73, 6.31, 6.08, 6.33, 6.21, 5.8, 5.89, 5.2, 5.2, 7.34, 7.34, 3.14, 3.14, 3.25, 3.25, 3.25, 2.91, 4.38, 4.38, 4.52, 4.11, 4.24, 2.89, 2.89, 3.2, 3.2, 3.3, 1.51, 0.0, 0.0, 0.0, 0.0, 1.42, 1.56, 3.07, 3.07, 2.72, 2.72, 1.51, 1.83, 0.0, 0.0, 0.0, 2.81, 2.72, 2.35, 0.0, 0.0, 0.0, 2.5, 9.49, 12.65, 13.2, 10.86, 7.02, 5.1, 4.05, 4.8, 5.98, 6.21, 6.98, 6.3, 6.3, 5.46, 5.2, 5.24, 5.24, 5.24, 5.24, 5.24, 5.53, 6.32, 5.69, 4.37, 4.22, 4.71, 4.83, 4.21, 3.7, 3.3, 4.4, 5.54, 5.52, 5.31, 4.76, 4.16, 4.53, 6.81, 7.75, 7.38, 7.18, 7.63, 6.17, 6.51, 7.19, 8.38, 8.05, 7.19, 6.33, 6.56, 6.21, 6.43, 5.48, 4.93, 4.21, 3.96, 3.96, 5.67, 5.67, 3.14, 3.14, 3.25, 3.25, 3.25, 2.91, 3.01, 4.38, 4.11, 4.11, 4.11, 2.89, 4.24, 4.24, 2.89, 2.98, 0.0, 0.0, 0.0, 0.0, 0.0, 1.42, 3.07, 3.07, 2.98, 2.72, 2.72, 1.38, 1.47, 1.63, 0.0, 0.0, 0.0, 0.0, 2.28, 2.28, 0.0, 0.0, 2.43, 7.82, 12.65, 13.2, 11.28, 6.45, 4.44, 4.66, 4.6, 5.75, 5.98, 7.26, 7.59, 6.58, 5.72, 5.46, 4.94, 5.24, 5.24, 4.68, 4.94, 4.68, 5.72, 5.72, 4.14, 4.22, 4.21, 3.49, 3.35, 3.52, 3.7, 4.66, 5.21, 6.86, 6.73, 6.74, 5.67, 4.52, 4.81, 6.14, 8.45, 11.71, 11.16, 8.43, 7.41, 7.54, 8.01, 7.9, 7.01, 6.21, 5.6, 5.29, 4.65, 3.96, 3.23, 3.56, 3.81, 3.68, 4.99, 4.93, 1.61, 1.61, 3.14, 3.25, 3.25, 2.91, 3.01, 2.72, 4.11, 4.11, 4.11, 4.11, 4.11, 2.81, 2.89, 1.51, 0.0, 0.0, 0.0, 0.0, 1.42, 1.42, 3.07, 1.56, 1.42, 1.38, 1.38, 1.38, 1.47, 1.47, 1.42, 1.58, 1.77, 1.72, 1.72, 1.96, 1.72, 1.77, 2.09, 6.6, 11.33, 13.2, 11.64, 7.59, 4.94, 5.1, 5.0, 7.26, 8.53, 9.42, 8.22, 7.15, 6.87, 5.46, 4.94, 4.68, 4.94, 4.5, 4.26, 3.99, 4.96, 5.72, 5.1, 3.2, 3.17, 3.49, 3.32, 3.35, 4.44, 5.46, 6.11, 7.44, 6.3, 6.85, 7.65, 5.62, 3.22, 3.62, 5.92, 9.85, 10.25, 10.05, 9.87, 8.72, 7.9, 6.67, 6.31, 5.67, 4.81, 3.96, 3.96, 3.23, 2.45, 2.92, 3.14, 3.96, 4.43, 4.99, 1.61, 1.61, 1.61, 1.66, 3.25, 2.91, 2.91, 2.72, 2.81, 4.11, 2.81, 2.81, 2.81, 2.56, 1.34, 0.0, 0.0, 0.0, 0.0, 0.0, 1.42, 1.42, 1.42, 1.38, 1.38, 1.34, 1.47, 1.47, 1.47, 1.47, 1.42, 1.42, 1.42, 1.53, 1.53, 3.01, 3.01, 1.53, 1.77, 5.63, 10.43, 12.27, 12.33, 8.93, 6.14, 5.77, 7.44, 9.48, 9.96, 9.17, 8.01, 6.7, 6.2, 5.98, 4.94, 4.68, 4.94, 3.8, 3.6, 3.99, 4.71, 4.96, 3.55, 3.15, 3.15, 3.32, 3.17, 4.44, 5.2, 5.46, 6.4, 6.17, 5.6, 6.6, 9.37, 8.86, 5.81, 2.8, 3.69, 7.82, 9.22, 10.19, 10.46, 9.16, 7.01, 6.31, 5.73, 5.31, 4.24, 3.34, 3.34, 2.54, 2.72, 3.14, 3.73, 4.1, 3.96, 4.43, 1.61, 1.61, 1.61, 1.61, 1.66, 1.48, 2.91, 2.72, 2.72, 1.42, 2.81, 1.3, 1.3, 1.3, 0.0, 0.0, 0.0, 0.0, 0.0, 1.38, 1.38, 1.38, 1.42, 1.42, 1.38, 1.34, 1.34, 1.47, 1.47, 1.47, 1.42, 1.38, 1.38, 2.72, 3.01, 3.01, 3.01, 1.53, 1.53, 5.46, 10.12, 12.27, 11.53, 9.08, 7.59, 8.1, 9.16, 10.99, 8.87, 7.44, 7.44, 6.94, 6.45, 5.95, 4.44, 3.99, 4.21, 3.8, 3.6, 3.17, 3.35, 4.71, 4.2, 3.4, 2.99, 4.37, 4.21, 4.83, 5.44, 6.11, 6.4, 5.21, 4.58, 5.6, 7.59, 10.94, 10.5, 9.05, 6.8, 6.94, 8.18, 8.9, 9.84, 10.31, 6.8, 4.71, 5.02, 4.52, 3.46, 3.34, 3.56, 2.72, 4.1, 4.1, 5.11, 5.11, 3.44, 3.44, 1.43, 1.43, 1.43, 1.61, 1.43, 1.48, 1.48, 1.38, 1.38, 1.38, 1.38, 0.0, 0.0, 0.0, 0.0, 0.0, 0.0, 0.0, 0.0, 1.38, 1.38, 1.38, 1.38, 1.38, 0.0, 0.0, 1.34, 1.47, 1.47, 1.47, 1.42, 1.38, 1.38, 1.38, 1.48, 1.53, 1.53, 1.53, 1.53, 5.46, 10.12, 11.9, 11.53, 9.42, 7.26, 7.82, 9.16, 8.87, 7.19, 6.43, 7.19, 6.7, 6.2, 5.46, 4.71, 3.99, 3.8, 3.8, 2.83, 3.17, 3.35, 3.8, 4.46, 3.6, 2.99, 4.37, 4.6, 5.36, 5.44, 6.11, 5.21, 5.21, 4.4, 4.44, 6.51, 8.64, 10.96, 11.6, 9.95, 6.53, 7.66, 8.69, 9.75, 10.0, 6.81, 4.51, 3.57, 3.57, 3.68, 3.56, 3.81, 4.43, 6.87, 7.19, 4.1, 1.77, 1.77, 1.77, 2.54, 2.54, 2.54, 1.43, 1.43, 1.48, 1.33, 0.0, 0.0, 0.0, 0.0, 0.0, 0.0, 0.0, 0.0, 0.0, 0.0, 0.0, 0.0, 1.38, 1.38, 1.38, 1.38, 0.0, 0.0, 0.0, 0.0, 1.47, 1.47, 1.47, 1.42, 1.38, 1.38, 1.33, 1.33, 1.33, 1.38, 1.38, 1.53, 3.81, 10.12, 10.99, 11.53, 8.85, 8.53, 7.82, 8.38, 7.19, 6.7, 6.45, 6.2, 6.2, 5.7, 4.96, 4.71, 3.99, 3.6, 2.83, 2.83, 2.99, 3.17, 3.8, 4.71, 4.0, 4.83, 4.37, 4.6, 5.59, 5.44, 5.2, 4.66, 4.2, 3.99, 4.8, 5.2, 5.8, 8.9, 9.85, 10.81, 10.19, 8.33, 7.68, 8.62, 8.63, 6.22, 3.46, 3.68, 2.81, 2.81, 2.92, 4.65, 7.28, 9.17, 5.8, 1.77, 0.0, 0.0, 0.0, 2.24, 2.24, 2.32, 2.32, 1.17, 1.29, 1.21, 1.21, 0.0, 0.0, 0.0, 0.0, 0.0, 0.0, 0.0, 0.0, 0.0, 0.0, 1.34, 1.34, 1.38, 1.38, 0.0, 0.0, 0.0, 0.0, 0.0, 1.34, 1.47, 1.47, 1.42, 1.42, 1.38, 1.38, 1.33, 1.33, 2.63, 1.38, 1.53, 3.81, 9.16, 10.99, 10.65, 9.17, 8.53, 8.53, 7.82, 6.94, 6.45, 5.95, 5.46, 5.21, 4.71, 4.71, 4.71, 3.17, 2.99, 2.67, 2.67, 2.99, 3.17, 3.8, 4.37, 4.71, 5.36, 4.37, 4.6, 3.99, 5.2, 4.44, 5.06, 4.44, 4.2, 4.6, 4.3, 5.06, 5.55, 7.27, 9.05, 10.91, 11.37, 9.8, 7.7, 7.86, 6.77, 4.18, 2.72, 2.04, 1.97, 3.6, 8.05, 7.54, 4.1, 2.06, 0.0, 0.0, 0.0, 0.0, 2.24, 2.24, 2.24, 2.32, 1.17, 1.08, 1.11, 1.11, 1.11, 1.15, 0.0, 0.0, 0.0, 0.0, 0.0, 0.0, 0.0, 1.23, 1.34, 1.34, 1.34, 0.0, 0.0, 0.0, 0.0, 0.0, 1.34, 1.34, 1.34, 1.34, 1.42, 1.42, 1.38, 1.38, 1.33, 1.33, 1.33, 1.38, 1.53, 3.81, 8.87, 10.99, 10.65, 9.48, 8.85, 8.53, 7.82, 6.94, 6.7, 6.2, 5.7, 4.96, 4.46, 4.46, 3.99, 3.17, 3.17, 2.67, 2.51, 2.82, 2.99, 3.8, 4.37, 4.96, 3.99, 3.32, 3.15, 3.17, 3.35, 4.44, 4.44, 4.66, 4.4, 3.82, 4.3, 4.33, 4.1, 5.62, 7.53, 9.67, 9.92, 11.4, 9.46, 8.77, 8.18, 4.54, 2.72, 1.97, 2.54, 4.98, 6.7, 3.98, 1.91, 1.64, 0.0, 1.58, 1.58, 1.58, 2.24, 2.24, 2.24, 2.32, 1.08, 1.08, 1.08, 1.11, 1.11, 1.15, 1.15, 1.15, 1.15, 1.19, 0.0, 1.19, 1.19, 1.19, 1.3, 1.3, 1.34, 0.0, 0.0, 0.0, 0.0, 0.0, 1.3, 1.34, 1.34, 1.34, 1.34, 1.42, 1.42, 1.38, 1.33, 1.33, 1.21, 1.21, 1.38, 3.81, 8.87, 10.65, 10.65, 9.48, 9.17, 8.53, 7.82, 6.94, 6.94, 6.45, 5.95, 5.21, 4.96, 4.46, 3.17, 3.17, 2.99, 2.99, 2.82, 2.82, 2.99, 3.6, 4.37, 4.0, 3.35, 1.67, 1.67, 3.15, 4.6, 4.21, 4.44, 4.2, 3.99, 3.98, 3.82, 3.68, 4.21, 5.67, 7.23, 8.86, 9.92, 10.3, 11.98, 9.99, 8.56, 5.65, 3.69, 3.41, 4.55, 4.48, 4.32, 1.84, 1.58, 1.52, 2.6, 3.77, 3.77, 3.77, 1.13, 1.13, 1.13, 1.04, 1.08, 1.08, 1.08, 1.11, 1.11, 1.11, 1.15, 1.15, 1.15, 1.19, 1.19, 1.19, 1.19, 1.3, 1.3, 1.3, 0.0, 0.0, 0.0, 0.0, 0.0, 0.0, 1.3, 1.25, 1.3, 1.3, 1.34, 0.0, 0.0, 0.0, 1.33, 1.33, 1.21, 0.0, 1.48, 5.28, 8.59, 10.65, 10.65, 9.48, 9.17, 8.85, 8.1, 6.94, 6.94, 5.2, 4.8, 4.6, 4.2, 4.0, 3.17, 3.17, 2.99, 2.99, 2.82, 2.82, 2.82, 3.6, 4.37, 4.37, 3.8, 2.99, 2.99, 3.15, 4.6, 4.21, 4.2, 4.2, 4.18, 3.98, 3.67, 4.3, 4.87, 6.43, 8.31, 9.25, 9.42, 10.6, 12.87, 12.16, 10.89, 7.64, 7.8, 6.95, 5.4, 3.32, 1.91, 1.58, 2.95, 4.05, 3.77, 4.36, 4.36, 4.36, 1.13, 1.13, 1.04, 1.04, 1.04, 1.08, 1.08, 1.11, 1.11, 1.11, 1.15, 1.15, 1.15, 1.19, 1.19, 1.19, 1.3, 1.3, 1.3, 1.3, 0.0, 0.0, 0.0, 0.0, 0.0, 0.0, 1.3, 1.25, 1.25, 1.25, 0.0, 0.0, 0.0, 1.38, 1.33, 1.21, 1.21, 0.0, 1.48, 5.28, 8.59, 10.3, 10.65, 9.48, 9.17, 7.82, 8.1, 7.19, 5.4, 5.2, 4.8, 4.6, 4.4, 4.2, 3.17, 2.21, 2.21, 2.21, 2.09, 1.84, 3.2, 3.4, 4.14, 4.37, 3.8, 3.4, 3.77, 3.99, 4.21, 3.52, 3.3, 3.3, 3.99, 3.82, 4.44, 6.0, 6.45, 7.24, 8.95, 8.99, 9.54, 10.47, 11.52, 15.19, 14.88, 13.25, 9.71, 5.95, 5.43, 4.08, 3.07, 3.39, 4.05, 4.6, 4.18, 4.6, 4.6, 4.6, 1.04, 1.0, 1.04, 1.04, 1.04, 1.08, 1.08, 1.08, 1.11, 1.11, 1.15, 1.15, 1.3, 1.3, 1.15, 1.25, 1.25, 1.25, 1.25, 1.3, 1.3, 0.0, 0.0, 0.0, 0.0, 1.34, 1.3, 1.3, 1.25, 1.21, 0.0, 0.0, 0.0, 1.25, 1.21, 1.17, 1.17, 0.0, 1.43, 5.11, 9.48, 10.3, 10.3, 9.48, 10.12, 8.1, 8.1, 5.6, 5.4, 5.2, 4.8, 4.6, 4.4, 2.46, 2.33, 2.33, 2.21, 2.21, 2.09, 1.84, 3.0, 3.68, 3.91, 4.14, 3.6, 4.14, 3.97, 3.77, 3.99, 4.21, 4.0, 4.0, 4.2, 4.99, 5.52, 6.7, 7.36, 8.12, 8.3, 8.84, 8.86, 9.92, 10.59, 12.37, 14.13, 13.91, 10.6, 6.17, 5.69, 6.16, 6.16, 5.54, 5.69, 5.69, 4.99, 4.4, 4.4, 4.4, 1.0, 0.0, 0.0, 1.04, 1.04, 1.04, 1.08, 1.08, 1.21, 1.21, 1.25, 1.25, 1.3, 1.3, 1.25, 1.21, 1.21, 1.25, 1.3, 1.3, 1.3, 0.0, 0.0, 0.0, 0.0, 1.34, 1.3, 1.3, 1.25, 0.0, 0.0, 0.0, 0.0, 1.21, 1.17, 1.17, 0.0, 0.0, 1.43, 5.8, 9.96, 9.96, 9.48, 9.48, 9.17, 8.1, 5.6, 5.6, 5.4, 5.2, 4.8, 4.4, 4.4, 2.58, 2.46, 2.21, 2.21, 2.09, 2.09, 2.26, 2.12, 3.45, 3.68, 3.91, 4.14, 3.2, 3.2, 3.97, 4.87, 4.68, 4.5, 4.74, 4.98, 5.46, 6.17, 7.13, 7.18, 7.36, 7.24, 7.38, 8.18, 8.86, 8.99, 9.79, 16.33, 14.86, 10.19, 6.76, 5.98, 7.06, 6.86, 6.86, 6.44, 5.95, 5.06, 5.06, 5.06, 5.06, 0.0, 0.0, 0.0, 0.0, 0.0, 0.0, 1.04, 1.17, 1.17, 1.21, 1.25, 1.25, 0.0, 0.0, 0.0, 0.0, 0.0, 0.0, 0.0, 0.0, 0.0, 0.0, 0.0, 0.0, 0.0, 0.0, 0.0, 0.0, 0.0, 0.0, 0.0, 0.0, 0.0, 1.21, 1.17, 1.17, 0.0, 0.0, 1.55, 7.19, 9.96, 9.96, 9.17, 10.12, 9.17, 8.1, 5.6, 5.6, 5.4, 5.2, 4.8, 4.6, 3.25, 2.58, 1.26, 2.69, 2.54, 2.09, 1.96, 2.26, 2.12, 3.45, 3.45, 4.29, 2.82, 2.66, 2.82, 4.19, 4.22, 4.68, 4.5, 5.36, 5.36, 6.79, 6.95, 6.95, 7.13, 6.84, 6.7, 7.24, 8.18, 8.99, 8.86, 10.94, 14.55, 13.67, 10.13, 8.05, 8.22, 7.27, 6.7, 7.26, 7.14, 6.2, 5.52, 5.29, 5.29, 5.29, 0.0, 0.0, 0.0, 0.0, 0.0, 0.0, 0.0, 0.0, 0.0, 0.0, 0.0, 0.0, 0.0, 0.0, 0.0, 0.0, 0.0, 0.0, 0.0, 0.0, 0.0, 0.0, 0.0, 0.0, 0.0, 0.0, 0.0, 0.0, 0.0, 0.0, 0.0, 0.0, 0.0, 0.0, 0.0, 0.0, 0.0, 0.0, 1.55, 6.94, 9.17, 9.96, 9.17, 10.12, 9.17, 6.67, 5.6, 5.6, 5.4, 5.2, 4.8, 3.25, 1.39, 1.33, 1.47, 1.4, 1.4, 2.54, 2.4, 2.26, 2.12, 3.45, 4.02, 3.0, 2.66, 1.4, 3.0, 2.99, 3.4, 3.99, 4.94, 4.94, 5.82, 6.64, 7.13, 6.95, 7.27, 7.26, 7.64, 7.64, 8.3, 9.11, 11.53, 11.83, 13.14, 12.88, 11.06, 9.8, 9.42, 7.72, 6.79, 7.36, 6.67, 6.67, 5.75, 5.35, 5.35, 5.35, 0.0, 0.0, 0.0, 0.0, 0.0, 0.0, 0.0, 0.0, 0.0, 0.0, 0.0, 0.0, 0.0, 0.0, 0.0, 0.0, 0.0, 0.0, 0.0, 0.0, 0.0, 0.0, 0.0, 0.0, 0.0, 0.0, 0.0, 0.0, 0.0, 0.0, 0.0, 0.0, 0.0, 0.0, 0.0, 0.0, 0.0, 0.0, 1.71, 7.82, 8.85, 8.85, 9.17, 10.12, 9.17, 6.44, 5.6, 5.6, 5.6, 3.68, 3.39, 1.45, 0.0, 0.0, 0.0, 1.67, 1.67, 1.32, 1.25, 2.4, 2.26, 2.66, 3.0, 3.0, 2.49, 1.73, 3.2, 2.32, 2.66, 3.4, 3.17, 4.21, 5.2, 6.11, 6.64, 6.64, 6.95, 7.13, 8.07, 8.12, 8.85, 9.7, 11.9, 16.08, 13.68, 13.91, 11.38, 9.42, 7.9, 7.13, 6.57, 6.84, 6.92, 5.98, 5.57, 4.3, 4.3, 4.3, 0.0, 0.0, 0.0, 0.0, 0.0, 0.0, 0.0, 0.0, 0.0, 0.0, 0.0, 0.0, 0.0, 0.0, 0.0, 0.0, 0.0, 0.0, 0.0, 0.0, 0.0, 0.0, 0.0, 0.0, 0.0, 0.0, 0.0, 0.0, 0.0, 0.0, 0.0, 0.0, 0.0, 0.0, 0.0, 0.0, 0.0, 0.0, 1.71, 7.54, 8.85, 8.85, 9.77, 8.85, 6.44, 6.44, 3.96, 3.96, 3.96, 1.91, 1.52, 1.45, 0.0, 0.0, 0.0, 2.06, 1.67, 1.58, 1.49, 1.49, 2.82, 2.66, 3.0, 3.2, 1.73, 1.63, 1.73, 1.63, 1.84, 2.4, 3.17, 4.21, 5.2, 5.82, 6.11, 6.11, 6.64, 6.48, 7.13, 8.22, 8.53, 8.99, 10.6, 14.88, 14.93, 14.13, 12.45, 9.17, 6.58, 6.7, 6.98, 6.57, 6.45, 5.57, 5.57, 4.47, 4.47, 4.47, 0.0, 0.0, 0.0, 0.0, 0.0, 0.0, 0.0, 0.0, 0.0, 0.0, 0.0, 0.0, 0.0, 0.0, 0.0, 0.0, 0.0, 0.0, 0.0, 0.0, 0.0, 0.0, 0.0, 0.0, 0.0, 0.0, 0.0, 0.0, 0.0, 0.0, 0.0, 0.0, 0.0, 0.0, 0.0, 0.0, 0.0, 0.0, 1.71, 6.21, 8.85, 8.85, 8.85, 7.82, 6.44, 4.65, 2.06, 2.06, 2.06, 1.91, 0.0, 0.0, 0.0, 0.0, 0.0, 2.17, 0.0, 0.0, 0.0, 0.0, 1.49, 1.4, 3.2, 1.73, 1.73, 1.63, 1.63, 3.0, 2.32, 2.4, 3.6, 5.15, 6.01, 5.53, 5.82, 5.82, 6.32, 6.4, 6.48, 7.59, 7.64, 7.49, 7.53, 9.75, 15.01, 14.48, 12.7, 9.57, 6.88, 6.42, 6.7, 6.2, 6.09, 6.08, 5.2, 4.47, 4.47, 4.47, 0.0, 0.0, 0.0, 0.0, 0.0, 0.0, 0.0, 0.0, 0.0, 0.0, 0.0, 0.0, 0.0, 0.0, 0.0, 0.0, 0.0, 0.0, 0.0, 0.0, 0.0, 0.0, 0.0, 0.0, 0.0, 0.0, 0.0, 0.0, 0.0, 0.0, 0.0, 0.0, 0.0, 0.0, 0.0, 0.0, 0.0, 0.0, 1.71, 6.21, 7.82, 7.82, 7.82, 6.21, 4.48, 1.98, 2.06, 0.0, 0.0, 0.0, 0.0, 0.0, 0.0, 0.0, 2.28, 2.17, 0.0, 0.0, 0.0, 0.0, 0.0, 1.73, 1.73, 1.84, 1.84, 1.73, 3.47, 2.8, 2.32, 4.14, 5.03, 5.69, 5.15, 6.01, 6.01, 6.32, 5.82, 5.82, 6.18, 6.7, 6.24, 5.8, 5.91, 8.04, 13.44, 13.51, 12.96, 10.17, 7.93, 7.18, 7.18, 6.71, 6.62, 6.31, 5.2, 4.47, 4.47, 4.47, 0.0, 0.0, 0.0, 0.0, 0.0, 0.0, 0.0, 0.0, 0.0, 0.0, 0.0, 0.0, 0.0, 0.0, 0.0, 0.0, 0.0, 0.0, 0.0, 0.0, 0.0, 0.0, 0.0, 0.0, 0.0, 0.0, 0.0, 0.0, 0.0, 0.0, 0.0, 0.0, 0.0, 0.0, 0.0, 0.0, 0.0, 0.0, 1.98, 4.48, 6.21, 6.21, 6.21, 4.48, 3.82, 1.98, 0.0, 0.0, 0.0, 0.0, 0.0, 0.0, 0.0, 0.0, 1.84, 2.28, 0.0, 0.0, 0.0, 0.0, 0.0, 1.84, 1.84, 1.84, 1.84, 2.26, 2.12, 3.72, 3.2, 3.68, 3.97, 5.31, 5.69, 5.15, 6.01, 5.82, 5.82, 5.46, 5.21, 5.29, 5.14, 5.06, 5.86, 7.8, 11.45, 13.48, 11.96, 10.47, 10.12, 8.42, 7.52, 6.71, 6.62, 6.08, 5.4, 5.4, 5.4, 5.4, 0.0, 0.0, 0.0, 0.0, 0.0, 0.0, 0.0, 0.0, 0.0, 0.0, 0.0, 0.0, 0.0, 0.0, 0.0, 0.0, 0.0, 0.0, 0.0, 0.0, 0.0, 0.0, 0.0, 0.0, 0.0, 0.0, 0.0, 0.0, 0.0, 0.0, 0.0, 0.0, 0.0, 0.0, 0.0, 0.0, 0.0, 0.0, 0.0, 4.48, 5.4, 4.48, 4.48, 2.37, 1.91, 0.0, 0.0, 0.0, 0.0, 0.0, 0.0, 0.0, 0.0, 0.0, 1.62, 0.0, 0.0, 0.0, 0.0, 0.0, 0.0, 0.0, 2.4, 2.54, 2.54, 2.4, 2.26, 2.26, 2.26, 4.22, 2.82, 5.36, 5.03, 5.36, 5.15, 4.94, 5.2, 4.2, 3.81, 4.78, 4.44, 5.2, 6.65, 8.11, 11.42, 13.75, 11.43, 11.06, 10.12, 9.8, 9.32, 7.24, 6.62, 5.99, 5.6, 5.06, 5.06, 5.06, 0.0, 0.0, 0.0, 0.0, 0.0, 0.0, 0.0, 0.0, 0.0, 0.0, 0.0, 0.0, 0.0, 0.0, 0.0, 0.0, 0.0, 0.0, 0.0, 0.0, 0.0, 0.0, 0.0, 0.0, 0.0, 0.0, 0.0, 0.0, 0.0, 0.0, 0.0, 0.0, 0.0, 0.0, 0.0, 0.0, 0.0, 0.0, 0.0, 2.28, 2.93, 2.37, 2.28, 2.28, 1.84, 0.0, 0.0, 0.0, 0.0, 0.0, 0.0, 0.0, 0.0, 0.0, 0.0, 0.0, 0.0, 0.0, 0.0, 0.0, 0.0, 0.0, 0.0, 0.0, 0.0, 0.0, 0.0, 0.0, 0.0, 3.4, 4.22, 4.29, 3.0, 4.0, 3.6, 4.71, 4.44, 4.2, 4.98, 4.78, 5.7, 6.0, 6.56, 8.18, 10.83, 13.14, 12.96, 11.58, 10.92, 11.25, 10.75, 9.34, 7.63, 6.33, 5.72, 5.78, 5.78, 5.78, 0.0, 0.0, 0.0, 0.0, 0.0, 0.0, 0.0, 0.0, 0.0, 0.0, 0.0, 0.0, 0.0, 0.0, 0.0, 0.0, 0.0, 0.0, 0.0, 0.0, 0.0, 0.0, 0.0, 0.0, 0.0, 0.0, 0.0, 0.0, 0.0, 0.0, 0.0, 0.0, 0.0, 0.0, 0.0, 0.0, 0.0, 0.0, 0.0, 2.28, 2.93, 2.37, 2.28, 2.28, 1.84, 0.0, 0.0, 0.0, 0.0, 0.0, 0.0, 0.0, 0.0, 0.0, 0.0, 0.0, 0.0, 0.0, 0.0, 0.0, 0.0, 0.0, 0.0, 0.0, 0.0, 0.0, 0.0, 0.0, 0.0, 3.4, 4.22, 4.29, 3.0, 4.0, 3.6, 4.71, 4.44, 4.2, 4.98, 4.78, 5.7, 5.76, 6.7, 8.05, 9.25, 12.3, 13.28, 11.83, 11.2, 10.75, 10.52, 10.19, 9.39, 7.93, 6.48, 6.71, 6.71, 6.71]}]